GEFSSGP_con_probscp_108.txt.gz
Probability
0 0 0 0 0 0 0 0 0 0 0 0 1 1 0 0 0 1 2 7 10 11 11 12 11 8 5 2 0 0 0 0 0 0 0 0 0 0 0 0 0 0 0 0 0 0 0 0 0
0 0 0 0 0 0 0 0 1 1 1 1 2 2 1 0 1 2 4 8 12 14 14 15 15 12 6 2 0 0 0 0 0 0 0 0 0 0 0 0 0 0 0 0 0 0 0 0 0
0 0 0 0 0 0 0 0 2 3 4 5 5 3 2 3 5 6 8 11 15 17 17 19 21 16 9 3 1 0 0 0 0 0 0 0 0 0 0 0 0 0 0 0 0 0 0 0 0
0 0 0 0 0 0 0 0 2 4 7 10 10 7 5 10 17 20 20 20 20 18 19 21 23 19 11 5 2 0 0 0 0 0 0 0 0 0 0 0 0 0 0 0 0 0 0 0 0
0 0 0 0 0 0 0 0 2 7 12 16 17 13 13 23 37 40 34 30 27 22 21 22 24 20 13 6 3 1 0 0 0 0 0 0 0 0 0 0 0 0 0 0 0 0 0 0 0
0 0 0 0 0 0 0 0 4 11 18 23 24 21 23 38 53 51 41 35 31 26 22 21 22 20 15 8 4 1 0 0 0 0 0 0 0 0 0 0 0 0 0 0 0 0 0 0 0
0 0 0 0 0 0 0 1 7 14 20 26 31 28 31 47 58 53 43 34 30 26 22 19 19 17 15 10 5 2 1 0 0 0 0 0 0 0 0 0 0 0 0 0 0 0 0 0 0
0 0 0 0 0 0 0 2 7 13 18 26 34 33 38 53 63 57 46 35 28 24 21 18 17 15 14 11 7 4 2 1 0 0 0 0 0 0 0 0 0 0 0 0 0 0 0 0 0
0 0 0 0 0 0 0 1 6 14 20 28 34 37 46 62 70 65 52 39 30 23 19 18 16 15 14 12 9 5 3 1 0 0 0 0 0 0 0 0 0 0 0 0 0 0 0 0 0
0 0 0 0 0 0 0 1 6 15 23 31 38 45 56 70 77 71 58 44 31 22 17 16 15 14 13 12 10 7 3 1 0 0 0 0 0 0 0 0 0 0 0 0 0 0 0 0 0
0 0 0 0 0 0 0 1 6 14 21 30 41 51 61 72 77 72 61 46 31 20 14 13 13 12 11 12 11 8 4 2 1 0 0 0 0 0 0 0 0 0 0 0 0 0 0 0 0
0 0 0 0 0 0 0 2 7 13 19 30 44 53 61 69 72 69 62 48 33 21 13 10 11 11 10 11 11 9 5 2 1 0 0 0 0 0 0 0 0 0 0 0 0 0 0 0 0
0 0 0 0 0 0 0 3 8 15 26 41 52 54 57 62 64 63 60 51 38 27 18 13 13 14 13 12 12 8 4 1 0 0 0 0 0 0 0 0 0 0 0 0 0 0 0 0 0
0 0 0 0 0 0 0 3 8 18 35 52 59 56 54 55 58 59 58 54 44 36 28 21 19 19 17 13 11 8 4 1 0 0 0 0 0 0 0 0 0 0 0 0 0 0 0 0 0
0 0 0 0 0 0 0 3 8 19 35 50 58 58 56 55 55 57 58 55 50 44 36 29 26 24 19 14 11 9 6 4 2 1 0 0 0 0 0 0 0 0 0 0 0 0 0 0 0
0 0 0 0 0 0 0 2 9 19 30 41 52 60 60 55 52 53 55 55 51 46 39 32 28 25 20 17 13 11 8 5 4 2 0 0 0 0 0 0 0 0 0 0 0 0 0 0 0
0 0 0 0 0 0 0 3 10 20 28 37 49 59 60 55 50 48 50 50 47 42 36 32 29 24 21 19 16 13 9 5 4 3 2 1 0 0 0 0 0 0 0 0 0 0 0 0 0
0 0 0 0 0 0 1 4 11 20 29 38 47 56 59 56 50 46 44 43 41 37 34 32 29 23 20 20 19 16 13 9 6 6 6 4 2 1 0 0 0 0 0 0 0 0 0 0 0
0 0 0 0 0 0 1 5 10 17 28 37 45 52 57 56 51 45 40 38 36 34 32 30 25 20 18 19 19 17 17 13 9 8 9 8 6 3 1 0 0 0 0 0 0 0 0 0 0
0 0 0 0 0 0 2 5 9 13 20 31 40 47 51 53 51 46 41 37 34 31 28 24 20 17 15 16 14 13 13 12 8 7 8 8 8 6 3 1 0 0 0 0 0 0 0 0 0
0 0 0 0 0 0 2 5 7 9 12 21 31 38 44 50 49 44 40 35 29 26 23 19 15 14 13 12 10 8 7 7 6 5 6 6 8 6 3 1 0 0 0 0 0 0 0 0 0
0 0 0 0 0 0 1 2 3 5 7 11 17 25 35 44 44 38 35 31 25 22 20 18 14 12 11 10 9 7 5 4 4 5 5 6 6 5 3 1 1 0 0 0 0 0 0 0 0
0 0 0 0 0 0 0 0 1 2 4 4 7 14 25 34 36 32 29 27 24 22 21 19 15 11 9 8 8 6 5 4 4 4 6 6 5 4 3 3 2 1 0 0 0 0 0 0 0
0 0 0 0 0 0 0 0 0 1 1 2 4 9 15 22 26 27 26 24 21 21 21 18 14 10 8 7 6 5 4 4 4 4 6 6 5 3 3 3 2 1 0 0 0 0 0 0 0
0 0 0 0 0 0 0 0 0 0 0 1 3 5 8 13 18 22 23 19 15 15 16 15 10 7 6 6 6 5 4 4 4 4 6 6 5 3 3 3 2 1 0 0 0 0 0 0 0
0 0 0 0 0 0 0 0 0 1 1 3 4 3 5 9 13 17 18 15 10 10 10 9 7 5 5 6 6 5 4 4 3 4 5 5 3 2 2 2 2 1 0 0 0 0 0 0 0
0 0 0 0 0 0 0 0 1 2 3 5 5 4 6 8 9 11 11 9 8 7 7 7 6 5 6 6 6 5 4 3 3 3 4 4 2 0 1 1 1 0 0 0 0 0 0 0 0
0 0 0 0 0 0 0 0 1 2 4 6 6 7 7 7 8 7 5 4 4 6 8 9 7 7 7 6 6 5 4 3 3 3 2 1 0 0 0 0 0 0 0 0 0 0 0 0 0
0 0 0 0 0 0 0 0 0 1 2 4 6 8 8 8 8 6 2 2 3 5 8 9 8 7 7 6 6 5 4 3 3 3 1 0 0 0 0 0 0 0 0 0 0 0 0 0 0
0 0 0 0 0 0 0 0 0 0 1 2 5 8 8 8 7 5 2 1 2 4 7 9 8 7 6 6 6 5 5 4 3 2 1 0 0 0 0 0 0 0 0 0 0 0 0 0 0

GEFSSGP_con_probscp_114.txt.gz
Probability
0 0 0 0 0 0 0 0 0 0 0 0 1 1 1 0 1 1 2 3 3 1 0 1 1 1 1 0 0 0 0 0 0 0 0 0 0 0 0 0 0 0 0 0 0 0 0 0 0
0 0 0 0 0 0 0 0 0 0 0 1 2 3 2 2 3 4 4 4 4 3 2 1 3 3 2 1 0 0 0 0 0 0 0 0 0 0 0 0 0 0 0 0 0 0 0 0 0
0 0 0 0 0 0 0 0 0 1 2 2 4 5 3 4 6 6 6 8 8 7 4 3 4 5 3 1 1 1 0 0 0 0 0 0 0 0 0 0 0 0 0 0 0 0 0 0 0
0 0 0 0 0 0 0 1 1 2 4 5 7 6 4 5 7 8 10 14 14 11 8 8 9 9 5 2 1 1 0 0 0 0 0 0 0 0 0 0 0 0 0 0 0 0 0 0 0
0 0 0 0 0 0 1 2 2 4 7 9 11 10 8 8 12 15 17 19 18 15 13 14 16 15 9 2 0 0 0 0 0 0 0 0 0 0 0 0 0 0 0 0 0 0 0 0 0
0 0 0 0 0 0 1 2 3 6 10 14 16 16 16 17 23 26 24 22 20 18 16 17 19 17 11 4 1 0 0 0 0 0 0 0 0 0 0 0 0 0 0 0 0 0 0 0 0
0 0 0 0 0 0 1 2 3 7 12 17 20 23 25 30 37 41 36 28 23 20 19 19 18 15 11 6 2 0 0 0 0 0 0 0 0 0 0 0 0 0 0 0 0 0 0 0 0
0 0 0 0 0 0 1 2 4 8 13 17 21 25 33 46 57 59 52 40 30 24 23 23 19 14 11 7 3 0 0 0 0 0 0 0 0 0 0 0 0 0 0 0 0 0 0 0 0
0 0 0 0 0 0 1 2 4 8 14 18 22 30 47 67 76 73 64 53 41 32 28 26 23 17 12 7 3 1 1 0 0 0 0 0 0 0 0 0 0 0 0 0 0 0 0 0 0
0 0 0 0 0 0 1 2 3 8 13 19 27 44 67 82 82 75 67 57 47 39 32 27 24 19 14 10 7 6 4 2 1 0 0 0 0 0 0 0 0 0 0 0 0 0 0 0 0
0 0 0 0 0 0 0 1 2 6 10 17 33 58 79 86 81 71 62 52 44 39 33 26 21 17 15 12 12 11 8 4 1 0 0 0 0 0 0 0 0 0 0 0 0 0 0 0 0
0 0 0 0 0 0 0 1 3 5 8 16 36 63 82 86 78 67 56 46 38 34 30 24 19 15 13 12 13 12 8 4 1 0 0 0 0 0 0 0 0 0 0 0 0 0 0 0 0
0 0 0 0 0 0 0 2 5 5 7 17 38 61 76 79 72 61 51 42 35 29 26 23 19 15 12 11 11 9 6 3 1 0 0 0 0 0 0 0 0 0 0 0 0 0 0 0 0
0 0 0 0 0 0 0 1 4 4 7 17 34 52 62 64 61 55 48 39 31 26 22 21 19 15 12 10 9 8 5 2 0 0 0 0 0 0 0 0 0 0 0 0 0 0 0 0 0
0 0 0 0 0 0 0 0 2 4 7 14 26 40 46 47 49 49 45 38 31 24 20 19 16 12 11 11 10 7 4 1 0 0 0 0 0 0 0 0 0 0 0 0 0 0 0 0 0
0 0 0 0 0 0 0 0 2 5 10 15 24 31 35 37 40 42 41 38 31 23 18 16 13 10 11 12 11 8 4 2 1 0 0 0 0 0 0 0 0 0 0 0 0 0 0 0 0
0 0 0 0 0 0 0 0 3 8 14 19 24 29 31 33 35 37 39 38 32 23 15 12 10 8 9 11 11 7 4 2 1 0 0 0 0 0 0 0 0 0 0 0 0 0 0 0 0
0 0 0 0 0 0 0 0 3 8 13 18 22 24 25 26 28 33 39 40 35 25 17 12 10 8 7 8 9 7 4 2 1 0 0 0 0 0 0 0 0 0 0 0 0 0 0 0 0
0 0 0 0 0 0 0 0 2 6 11 15 16 15 15 16 18 27 37 40 35 28 20 14 12 10 7 6 6 6 5 3 1 0 0 1 1 0 0 0 0 0 0 0 0 0 0 0 0
0 0 0 0 0 0 0 0 2 5 9 11 11 9 9 10 14 23 33 37 34 29 22 17 15 13 10 6 6 6 5 3 1 0 0 1 1 2 1 0 0 0 0 0 0 0 0 0 0
0 0 0 0 0 0 0 0 1 3 6 6 6 6 7 10 15 22 30 33 31 26 22 20 17 14 11 8 6 5 3 2 1 0 0 0 2 4 3 1 0 0 0 0 0 0 0 0 0
0 0 0 0 0 0 0 0 0 1 2 2 3 4 6 10 17 22 24 26 25 21 19 20 18 15 11 9 6 3 2 2 2 1 0 0 2 3 3 1 0 0 0 0 0 0 0 0 0
0 0 0 0 0 0 0 0 0 0 1 1 1 2 5 10 16 18 16 16 17 15 14 16 16 14 10 8 5 3 3 3 3 2 1 1 1 2 3 3 1 0 0 0 0 0 0 0 0
0 0 0 0 0 0 0 0 0 0 0 0 0 1 4 8 12 11 9 8 10 11 10 10 11 11 9 7 4 3 3 3 3 3 3 2 2 2 3 4 3 1 0 0 0 0 0 0 0
0 0 0 0 0 0 0 0 0 0 0 0 0 1 3 5 7 8 7 6 7 8 8 7 7 8 7 5 3 3 3 3 3 3 3 3 3 3 4 4 3 2 1 0 0 0 0 0 0
0 0 0 0 0 0 0 0 0 0 0 0 0 0 1 3 6 9 8 5 5 6 6 5 5 5 5 4 3 3 3 3 2 2 2 3 3 4 4 4 4 3 2 1 0 0 0 0 0
0 0 0 0 0 0 0 0 0 0 0 0 0 0 0 2 5 9 9 6 3 3 4 4 5 4 4 3 3 3 3 1 1 1 1 1 2 3 4 4 3 2 2 1 0 0 0 0 0
0 0 0 0 0 0 0 0 0 0 0 0 0 0 1 2 5 9 10 7 4 2 2 3 5 6 5 4 3 3 3 1 0 0 0 0 1 2 2 2 1 1 1 0 0 0 0 0 0
0 0 0 0 0 0 0 0 0 0 0 0 0 0 1 2 5 7 8 7 4 2 2 3 5 6 4 3 3 3 3 2 0 0 0 0 0 1 1 1 0 0 0 0 0 0 0 0 0
0 0 0 0 0 0 0 0 0 0 0 0 0 0 0 1 3 4 6 5 4 3 3 3 4 5 4 3 3 2 2 1 0 0 0 0 0 0 0 0 0 0 0 0 0 0 0 0 0

GEFSSGP_con_probscp_120.txt.gz
Probability
0 1 3 6 7 3 0 0 0 0 0 0 0 0 0 0 0 1 2 1 0 0 0 0 0 0 0 0 0 0 0 0 0 0 0 0 0 0 0 0 0 0 0 0 0 0 0 0 0
0 1 2 3 3 1 0 0 0 0 0 0 0 0 0 0 0 1 1 1 0 0 0 0 0 0 0 0 0 0 0 0 0 0 0 0 0 0 0 0 0 0 0 0 0 0 0 0 0
0 0 1 1 0 0 0 0 0 0 0 0 1 1 1 0 0 0 0 0 0 0 0 0 0 0 0 0 0 0 0 0 0 0 0 0 0 0 0 0 0 0 0 0 0 0 0 0 0
0 0 0 0 0 0 0 0 0 0 0 0 1 2 2 1 1 1 1 0 0 0 1 1 1 1 0 0 0 0 0 0 0 0 0 0 0 0 0 0 0 0 0 0 0 0 0 0 0
0 0 0 0 0 0 0 0 0 0 0 0 0 2 6 8 7 6 3 1 0 0 2 3 3 2 1 0 0 0 0 0 0 0 0 0 0 0 0 0 0 0 0 0 0 0 0 0 0
0 0 0 0 0 0 0 0 0 1 1 1 0 5 16 23 21 15 8 2 1 2 4 5 5 3 2 1 0 0 0 0 0 0 0 0 0 0 0 0 0 0 0 0 0 0 0 0 0
0 0 0 0 0 0 0 0 0 1 2 3 3 10 28 40 37 26 13 6 4 5 6 7 6 4 3 2 1 0 0 0 0 0 0 0 0 0 0 0 0 0 0 0 0 0 0 0 0
0 0 0 0 0 0 0 0 0 0 2 4 6 15 36 53 53 41 26 15 11 9 8 8 7 5 4 2 1 0 0 0 0 0 0 0 0 0 0 0 0 0 0 0 0 0 0 0 0
0 0 0 0 0 0 0 0 0 0 1 5 9 21 45 65 70 61 47 32 23 16 11 9 9 7 5 2 1 0 0 0 0 0 0 0 0 0 0 0 0 0 0 0 0 0 0 0 0
0 0 0 0 0 0 0 0 0 0 1 4 12 30 56 76 82 76 63 48 34 23 15 13 12 10 7 3 2 1 1 0 0 0 0 0 0 0 0 0 0 0 0 0 0 0 0 0 0
0 0 0 0 0 0 0 0 0 0 1 5 16 41 68 83 85 78 67 53 39 28 21 17 15 13 11 9 7 5 4 2 1 1 0 0 0 1 1 0 0 0 0 0 0 0 0 0 0
0 0 0 0 0 0 0 0 0 1 3 7 21 46 70 80 79 72 63 52 42 33 24 18 17 17 17 16 15 11 7 4 3 3 1 0 0 1 1 0 0 0 0 0 0 0 0 0 0
0 0 0 0 0 0 0 0 1 2 5 10 23 44 62 68 67 63 57 50 43 35 26 19 17 20 23 23 21 16 10 6 5 5 4 1 0 1 1 0 0 0 0 0 0 0 0 0 0
0 0 0 0 0 0 0 0 1 3 5 9 19 34 46 51 55 55 52 47 41 35 29 22 18 20 23 23 23 19 12 7 6 6 5 3 1 0 0 0 0 0 0 0 0 0 0 0 0
0 0 0 0 0 0 0 1 2 3 4 6 12 23 33 39 44 47 47 43 38 34 31 25 20 19 20 20 22 22 15 8 6 5 5 3 1 0 0 0 0 0 0 0 0 0 0 0 0
0 0 0 0 0 0 0 1 3 4 3 3 8 17 25 31 34 37 40 40 38 35 32 26 20 18 19 19 23 24 19 11 7 6 5 2 1 0 0 0 0 0 0 0 0 0 0 0 0
0 0 0 0 0 0 0 1 3 4 3 3 9 15 20 26 28 29 34 39 40 36 33 28 22 18 18 21 25 26 22 15 10 8 4 2 1 0 0 0 0 0 0 0 0 0 0 0 0
0 0 0 0 0 0 0 1 3 5 3 4 9 15 19 24 26 26 31 37 38 36 35 33 27 23 23 25 28 26 19 15 12 8 4 2 1 0 0 1 1 0 0 0 0 0 0 0 0
0 0 0 0 0 0 0 1 3 5 3 3 6 12 18 22 25 27 30 33 34 35 35 35 31 29 29 29 27 22 16 15 15 10 6 3 2 1 2 2 3 2 1 1 1 1 0 0 0
0 0 0 0 0 0 0 1 3 5 4 2 3 8 14 20 24 29 32 32 33 35 34 31 30 30 30 27 23 19 16 16 16 13 9 6 4 3 3 3 4 4 3 2 2 2 1 0 0
0 0 0 0 0 0 0 1 2 4 4 2 2 6 12 17 22 27 30 29 30 31 29 25 25 26 25 22 18 15 13 12 11 12 10 7 5 4 3 4 5 6 5 4 4 3 3 2 2
0 0 0 0 0 0 0 0 1 2 3 2 2 6 11 16 19 23 26 26 24 23 21 19 21 21 20 18 14 10 8 7 7 10 10 7 4 4 5 6 7 7 7 7 6 5 6 7 6
0 0 0 0 0 0 0 0 0 1 1 1 2 5 10 15 17 19 22 23 21 18 16 16 17 17 15 14 13 10 8 7 7 9 8 5 4 4 6 8 9 9 9 10 10 9 9 9 9
0 0 0 0 0 0 0 0 0 0 0 0 1 4 8 13 16 17 19 20 19 16 14 14 15 15 13 11 10 9 8 7 7 7 6 4 4 5 6 8 10 11 10 11 12 12 9 9 9
0 0 0 0 0 0 0 0 0 0 0 0 0 2 6 11 15 16 18 17 15 14 13 13 14 14 12 9 7 6 6 5 5 5 6 6 6 6 5 8 12 13 11 10 11 12 10 9 8
0 0 0 0 0 0 0 0 0 0 0 0 0 1 3 8 12 15 17 16 13 13 12 12 13 13 11 8 6 6 5 4 4 6 7 9 8 6 5 7 11 12 11 9 9 11 11 9 8
0 0 0 0 0 0 0 0 0 0 0 0 0 0 2 5 7 11 15 16 15 14 12 11 13 13 10 7 6 5 4 3 5 7 9 9 7 5 4 6 7 9 9 10 10 11 10 9 7
0 0 0 0 0 0 0 0 0 0 0 0 0 0 1 2 4 9 14 16 16 16 13 12 12 12 8 5 4 3 2 2 4 5 6 7 5 3 3 4 5 6 7 10 12 11 9 6 5
0 0 0 0 0 0 0 0 0 0 0 0 1 1 2 4 6 11 15 15 15 15 13 11 10 8 5 4 3 3 2 1 1 2 3 4 4 3 3 3 4 5 6 8 9 8 5 3 3
0 0 0 0 0 0 0 0 0 0 0 1 2 2 3 6 9 13 15 14 13 12 10 9 7 5 3 3 4 4 3 2 1 0 1 2 4 5 3 2 2 4 5 5 6 5 2 1 1

GEFSSGP_con_probscp_126.txt.gz
Probability
6 12 25 39 38 19 4 0 0 0 0 0 0 0 0 0 0 1 4 9 13 9 3 4 4 2 0 0 0 0 0 0 0 0 0 0 0 0 0 0 0 0 0 0 0 0 0 0 0
6 11 21 31 27 11 2 0 0 0 0 0 0 0 0 0 0 1 4 8 10 7 4 4 4 2 0 0 0 0 0 0 0 0 0 0 0 0 0 0 0 0 0 0 0 0 0 0 0
6 9 16 20 13 3 0 0 0 0 0 0 0 0 0 0 0 2 5 7 6 6 6 7 6 2 1 1 1 0 0 0 0 0 0 0 0 0 0 0 0 0 0 0 0 0 0 0 0
8 9 11 9 4 1 0 0 0 0 0 1 1 1 1 1 1 4 7 7 6 6 7 7 7 4 2 2 2 1 0 0 0 0 0 0 0 0 0 0 0 0 0 0 0 0 0 0 0
9 9 7 3 0 0 0 0 0 0 0 1 4 6 5 2 2 6 8 8 8 8 7 7 7 6 3 3 3 2 1 0 0 0 0 0 0 0 0 0 0 0 0 0 0 0 0 0 0
6 5 4 1 0 0 0 0 0 0 0 1 5 11 9 4 4 6 9 11 12 12 9 8 8 6 4 3 3 2 1 0 0 0 0 0 0 0 0 0 0 0 0 0 0 0 0 0 0
2 2 1 0 0 0 0 0 0 0 0 0 5 14 17 14 10 9 11 16 19 18 13 9 7 6 4 3 3 2 1 0 0 0 0 0 0 0 0 0 0 0 0 0 0 0 0 0 0
1 0 0 0 0 0 0 0 0 0 0 0 4 15 27 28 20 16 17 22 26 23 15 10 7 6 5 4 3 3 2 1 0 0 0 0 0 0 0 0 0 0 0 0 0 0 0 0 0
0 0 0 0 0 0 0 0 0 0 1 3 7 21 36 36 28 25 26 30 33 28 19 13 9 7 5 5 4 3 3 1 0 0 0 0 0 0 0 0 0 0 0 0 0 0 0 0 0
0 0 0 0 0 0 0 0 0 0 2 8 18 33 46 44 37 35 34 36 38 33 24 19 13 8 5 5 4 4 4 2 1 0 0 0 0 0 0 0 0 0 0 0 0 0 0 0 0
0 0 0 0 0 0 0 0 0 0 2 12 29 46 55 54 48 45 42 41 41 36 29 26 21 15 11 10 8 7 6 4 2 1 0 0 0 0 0 0 0 0 0 0 0 0 0 0 0
0 0 0 0 0 0 0 0 0 1 3 12 30 50 59 58 56 53 49 47 46 43 37 35 32 30 29 25 16 12 9 7 6 5 3 2 1 0 0 0 0 0 0 0 0 0 0 0 0
0 0 0 0 0 0 0 0 0 1 5 12 28 47 57 58 59 59 58 57 58 55 48 44 42 44 47 41 28 19 16 14 13 10 6 4 3 2 1 0 0 0 0 0 0 0 0 0 0
0 0 0 0 0 0 0 0 1 3 7 14 26 43 56 61 64 66 68 69 69 66 58 51 48 50 52 46 33 26 23 21 19 15 9 5 6 6 4 1 0 0 0 0 0 0 0 0 0
0 0 0 0 0 0 0 0 1 3 7 14 23 39 58 68 70 73 78 79 77 73 65 54 48 47 46 39 31 27 24 21 22 20 14 9 9 11 7 2 0 0 0 0 0 0 0 0 0
0 0 0 0 0 0 0 1 3 3 6 13 22 39 60 73 75 77 82 83 80 75 67 57 47 40 36 32 29 27 24 24 28 28 22 15 14 15 10 4 1 1 0 0 0 0 0 0 0
0 0 0 0 0 0 0 1 3 3 5 12 23 42 63 73 74 78 83 83 81 76 68 60 51 41 34 30 31 31 29 30 34 33 28 24 22 20 14 9 6 3 2 2 2 1 1 0 1
0 0 0 0 0 0 0 0 2 3 5 13 27 48 63 68 70 76 80 80 79 76 69 63 56 48 38 31 31 32 32 33 35 33 30 30 29 24 18 14 11 8 6 6 5 4 3 2 2
0 0 0 0 0 0 0 0 1 2 5 14 32 49 59 64 68 74 76 75 74 72 68 62 57 51 42 34 32 31 31 31 31 31 32 32 30 26 20 16 16 14 11 11 10 8 6 4 3
0 0 0 0 0 0 0 0 1 2 4 13 27 41 52 62 69 72 71 69 68 68 66 61 57 52 44 37 33 30 28 27 24 26 31 31 29 26 22 21 23 20 16 15 14 11 8 6 4
0 0 0 0 0 0 0 0 1 2 5 10 17 28 43 57 67 70 68 64 63 64 64 60 56 51 43 37 31 27 25 21 17 21 27 28 26 25 25 25 26 23 19 17 15 13 10 7 5
0 0 0 0 0 0 0 1 2 2 4 8 12 20 32 47 60 67 66 61 59 58 59 59 56 49 41 35 30 25 19 15 13 17 23 23 22 23 25 24 25 25 22 17 14 13 13 10 7
0 0 0 0 0 0 0 0 1 1 3 6 10 17 26 38 52 62 63 59 55 52 51 54 54 49 40 34 31 26 18 12 11 16 20 19 18 20 21 22 24 25 23 17 14 15 16 13 9
0 0 0 0 0 0 0 0 0 1 2 4 10 16 24 33 46 56 58 56 53 48 46 47 49 46 39 33 31 28 22 15 14 16 17 15 15 17 18 20 23 24 21 16 14 16 16 14 11
0 0 0 0 0 0 0 0 1 3 3 4 9 15 20 29 42 52 54 53 51 47 44 44 43 41 38 35 33 31 25 18 15 15 14 12 11 14 16 19 22 21 17 16 16 16 15 13 11
0 0 0 0 0 0 0 0 2 3 3 4 7 10 15 24 38 48 51 50 47 42 39 40 40 38 36 35 33 31 25 17 13 13 12 10 10 12 17 23 23 19 16 18 20 18 15 14 13
0 0 0 0 0 0 0 1 4 3 2 4 5 8 13 22 32 41 44 43 38 34 33 35 37 36 32 30 29 27 23 17 14 12 10 8 9 13 21 27 26 21 18 19 21 20 17 17 18
0 0 0 0 0 0 0 2 5 5 4 4 6 8 14 21 27 33 38 36 32 29 29 30 32 31 27 24 23 22 21 18 15 11 9 8 9 14 23 27 24 21 19 18 18 17 16 18 19
0 0 0 0 0 0 0 2 6 7 5 4 7 12 17 22 26 30 33 33 30 27 25 24 24 23 21 21 21 20 20 18 15 12 10 9 11 15 21 23 20 17 15 14 12 11 12 13 14
0 0 0 0 0 0 1 2 5 6 4 4 9 16 21 24 28 31 31 31 29 24 22 21 19 18 18 19 21 22 21 19 16 14 12 11 12 15 17 19 17 14 11 10 9 9 9 9 9

GEFSSGP_con_probscp_132.txt.gz
Probability
4 2 1 0 1 0 0 0 0 0 0 0 0 0 0 0 0 0 0 2 4 6 6 4 3 1 0 0 0 0 0 0 0 0 0 0 0 0 0 0 0 0 0 0 0 0 0 0 0
1 1 0 0 1 0 0 0 0 0 0 0 0 0 0 1 1 1 2 4 6 7 6 4 3 1 0 0 0 0 0 0 0 0 0 0 0 0 0 0 0 0 0 0 0 0 0 0 0
0 0 0 0 0 0 0 0 1 1 0 0 0 0 0 2 5 4 5 8 9 8 6 4 5 3 1 0 0 0 0 0 0 0 0 0 0 0 0 0 0 0 0 0 0 0 0 0 0
1 1 1 0 0 0 0 1 3 2 1 1 2 1 1 5 11 11 11 13 13 10 5 4 5 5 2 1 0 0 0 0 0 0 0 0 0 0 0 0 0 0 0 0 0 0 0 0 0
1 1 0 0 0 0 0 1 3 4 4 4 3 3 4 13 23 22 17 17 18 14 7 4 6 5 3 2 1 0 0 0 0 0 0 0 0 0 0 0 0 0 0 0 0 0 0 0 0
1 0 0 0 0 0 0 1 3 6 7 6 6 5 10 24 34 30 21 18 19 17 10 5 6 5 5 4 2 1 0 0 0 0 0 0 0 0 0 0 0 0 0 0 0 0 0 0 0
0 0 0 0 0 0 0 1 3 6 7 8 10 11 17 31 39 34 25 19 17 15 11 7 6 4 4 4 3 2 1 0 0 0 0 0 0 0 0 0 0 0 0 0 0 0 0 0 0
0 0 0 0 0 0 0 0 1 4 7 12 15 17 23 35 45 42 33 24 18 13 11 9 7 4 3 4 4 3 2 1 0 0 0 0 0 0 0 0 0 0 0 0 0 0 0 0 0
0 0 0 0 0 0 0 0 1 4 10 16 19 20 28 45 58 58 48 36 26 19 13 9 7 5 4 5 5 4 3 1 0 0 0 0 0 0 0 0 0 0 0 0 0 0 0 0 0
0 0 0 0 0 0 0 1 2 5 11 17 20 24 35 53 68 71 64 51 39 28 17 9 5 5 5 6 6 5 3 1 0 0 0 0 0 0 0 0 0 0 0 0 0 0 0 0 0
0 0 0 0 0 0 0 0 1 4 8 15 22 28 40 55 68 74 71 58 45 32 20 10 6 5 5 5 4 4 3 2 1 0 0 0 0 0 0 0 0 0 0 0 0 0 0 0 0
0 0 0 0 0 0 0 0 0 3 9 17 27 35 42 52 62 69 70 61 47 34 23 14 9 5 4 4 4 3 3 3 2 1 0 0 0 0 0 0 0 0 0 0 0 0 0 0 0
0 0 0 0 0 0 0 0 1 7 17 28 36 40 42 47 54 62 66 62 51 37 27 19 12 8 5 5 4 3 3 3 2 1 0 0 0 0 0 0 0 0 0 0 0 0 0 0 0
0 0 0 0 0 0 1 1 3 11 25 37 43 44 43 44 49 55 60 59 51 40 30 21 13 10 7 6 5 4 4 3 2 1 0 0 0 0 0 0 0 0 0 0 0 0 0 0 0
0 0 0 0 0 0 2 2 5 16 30 40 46 48 45 44 46 50 53 52 48 42 33 23 16 12 8 7 6 6 5 4 2 1 0 0 0 0 0 0 0 0 0 0 0 0 0 0 0
0 0 0 0 0 0 1 3 8 23 37 45 51 53 49 46 46 47 48 47 46 45 38 30 25 18 11 8 7 6 5 4 2 2 1 1 1 1 0 0 0 0 0 0 0 0 0 0 0
0 0 0 0 0 0 1 3 10 26 42 53 58 58 55 52 49 49 50 47 46 47 44 39 33 26 18 10 6 6 5 4 3 2 2 3 3 3 2 0 0 0 0 0 0 0 0 0 0
0 0 0 0 0 0 0 2 11 26 45 59 62 60 58 55 52 53 55 51 48 49 48 44 38 33 25 15 9 7 6 5 4 4 4 4 4 4 4 1 0 0 0 0 0 0 0 0 0
0 0 0 0 0 0 0 2 11 25 43 57 61 58 57 54 53 56 59 57 53 51 50 45 39 35 29 21 14 11 9 7 7 6 5 4 3 4 4 2 0 0 0 0 0 0 0 0 0
0 0 0 0 0 0 0 2 9 21 36 49 57 58 57 56 56 58 60 58 55 53 50 43 37 34 29 23 17 13 10 7 6 6 6 5 4 4 3 2 1 0 0 0 0 0 0 0 0
0 0 0 0 0 0 0 1 5 15 28 42 53 59 61 60 59 59 57 54 51 48 44 38 33 29 23 18 15 12 9 5 3 4 5 5 5 4 4 3 1 1 0 0 0 0 0 0 0
0 0 0 0 0 0 0 0 3 10 21 35 47 57 61 60 57 55 51 47 44 40 35 29 25 21 17 13 12 11 8 4 1 2 4 5 5 5 5 4 3 2 1 1 0 0 0 0 0
0 0 0 0 0 0 0 1 2 7 16 27 39 50 57 55 51 46 41 37 35 33 27 21 16 15 14 11 10 9 6 3 1 1 3 4 3 4 5 5 4 3 3 2 1 0 0 0 0
0 0 0 0 0 0 0 1 2 4 11 20 31 44 52 51 44 38 33 30 30 28 25 18 13 12 11 9 7 6 4 2 1 1 1 2 2 2 4 5 5 4 3 3 2 1 0 0 0
0 0 0 0 0 0 0 0 1 2 8 18 27 38 48 48 41 34 31 30 29 27 25 21 15 11 9 7 6 5 4 4 3 1 1 1 1 1 2 3 4 4 4 3 3 1 0 0 0
0 0 0 0 0 0 0 0 1 4 11 19 25 33 41 40 35 33 32 31 29 28 26 22 16 10 7 6 6 6 6 5 3 1 1 1 1 1 1 1 2 3 3 3 3 2 1 1 0
0 0 0 0 0 0 0 0 3 10 16 20 24 29 32 30 28 28 26 25 26 25 22 18 15 11 8 6 6 5 5 4 2 0 0 0 1 1 1 0 0 1 1 1 2 2 2 2 1
0 0 0 0 0 0 0 0 3 11 18 20 22 25 26 23 22 22 18 17 20 20 16 14 13 12 9 7 5 4 2 1 0 0 0 0 0 0 0 0 0 0 0 0 1 1 1 1 1
0 0 0 0 0 0 0 0 3 10 17 19 20 22 22 20 19 18 15 13 14 14 13 13 13 12 11 8 6 3 2 1 0 0 0 0 0 0 0 0 0 0 0 0 0 0 0 0 0
0 0 0 0 0 0 0 1 4 10 16 19 21 21 19 16 17 17 16 13 11 11 11 12 12 12 11 9 6 4 3 2 1 0 0 0 0 0 0 0 0 0 0 1 1 1 0 0 0

GEFSSGP_con_probscp_138.txt.gz
Probability
4 3 1 0 0 0 0 0 0 0 0 0 0 1 2 1 0 0 0 1 3 2 1 0 0 0 0 0 0 0 0 0 0 0 0 0 0 0 0 0 0 0 0 0 0 0 0 0 0
3 2 1 0 0 0 0 0 0 0 0 0 0 1 2 1 0 0 0 1 4 3 1 0 0 0 0 0 0 0 0 0 0 0 0 0 0 0 0 0 0 0 0 0 0 0 0 0 0
1 1 0 0 0 0 0 0 0 0 0 0 0 1 1 0 0 1 2 3 5 4 1 0 0 0 0 0 0 0 0 0 0 0 0 0 0 0 0 0 0 0 0 0 0 0 0 0 0
0 0 0 0 0 0 0 0 0 1 1 1 0 0 0 1 2 5 7 7 7 4 1 0 0 0 0 0 0 0 0 0 0 0 0 0 0 0 0 0 0 0 0 0 0 0 0 0 0
0 0 0 0 0 0 0 0 1 2 2 2 1 1 1 4 7 11 12 12 10 6 3 1 0 0 0 0 0 0 0 0 0 0 0 0 0 0 0 0 0 0 0 0 0 0 0 0 0
0 0 0 0 0 0 0 1 3 4 4 4 3 2 4 8 12 16 18 16 13 9 5 3 1 1 1 1 0 0 0 0 0 0 0 0 0 0 0 0 0 0 0 0 0 0 0 0 0
0 0 0 0 0 0 0 1 4 5 5 5 5 4 6 11 15 19 21 20 17 12 8 5 3 2 2 2 1 0 0 0 0 0 0 0 0 0 0 0 0 0 0 0 0 0 0 0 0
0 0 0 0 0 0 0 0 2 4 6 5 5 5 8 15 20 22 24 23 19 14 9 5 3 2 3 3 2 1 0 0 0 0 0 0 0 0 0 0 0 0 0 0 0 0 0 0 0
0 0 0 0 0 0 0 0 1 4 6 6 6 8 17 27 30 28 28 25 20 14 9 6 3 2 3 3 2 1 0 0 0 0 0 0 0 0 0 0 0 0 0 0 0 0 0 0 0
0 0 0 0 0 0 0 0 2 5 8 8 10 19 36 43 38 33 29 25 20 14 10 7 5 4 4 4 3 1 0 0 0 0 0 0 0 0 0 0 0 0 0 0 0 0 0 0 0
0 0 0 0 0 0 0 0 2 6 7 9 18 36 52 51 40 31 26 21 16 13 9 8 6 4 4 4 3 1 1 1 0 0 0 0 0 0 0 0 0 0 0 0 0 0 0 0 0
0 0 0 0 0 0 0 0 2 4 5 11 28 47 56 51 37 26 21 16 12 10 9 8 6 4 4 4 3 3 2 2 1 0 0 0 0 0 0 0 0 0 0 0 0 0 0 0 0
0 0 0 0 0 0 0 0 1 3 7 18 35 47 51 47 35 23 16 13 11 10 10 10 7 5 4 4 3 3 3 2 1 0 0 0 0 0 0 0 0 0 0 0 0 0 0 0 0
0 0 0 0 0 0 0 0 1 3 11 22 34 40 43 43 38 27 17 13 12 12 11 10 9 6 5 4 3 3 3 1 0 0 0 0 0 0 0 0 0 0 0 0 0 0 0 0 0
0 0 0 0 0 0 0 0 0 3 10 20 27 30 34 39 39 32 22 17 14 12 10 10 8 6 4 4 3 3 3 2 1 0 0 0 0 0 0 0 0 0 0 0 0 0 0 0 0
0 0 0 0 0 0 0 0 0 2 8 15 21 25 29 33 35 31 26 21 16 12 9 8 7 5 3 3 3 3 3 3 2 1 1 0 0 0 0 0 0 0 0 0 0 0 0 0 0
0 0 0 0 0 0 0 0 0 2 7 13 18 25 29 30 29 28 27 25 20 15 10 8 7 5 4 3 3 3 3 3 3 3 2 1 1 1 0 0 0 0 0 0 0 0 0 0 0
0 0 0 0 0 0 0 0 0 2 7 13 21 27 30 29 26 25 25 24 20 15 11 9 8 7 5 4 3 3 3 3 3 3 3 3 2 2 1 0 0 0 0 0 0 0 0 0 0
0 0 0 0 0 0 0 0 0 1 6 15 25 30 30 28 26 24 24 23 20 14 10 9 9 8 7 5 4 3 3 3 3 3 3 3 3 3 2 1 0 0 0 0 0 0 0 0 0
0 0 0 0 0 0 0 0 0 1 5 14 24 28 29 30 30 28 26 25 22 16 11 9 9 8 8 6 4 3 3 3 3 3 3 3 3 3 3 2 1 1 1 1 1 0 0 0 0
0 0 0 0 0 0 0 0 0 1 4 11 19 23 27 31 32 30 27 24 20 16 11 8 8 8 7 6 6 5 4 3 3 3 3 2 1 1 2 1 1 2 2 2 2 1 0 0 0
0 0 0 0 0 0 0 0 0 0 2 7 13 20 26 28 28 26 22 19 16 12 9 6 7 7 6 6 7 7 5 4 3 2 2 1 0 0 0 1 2 3 3 3 3 1 1 0 0
0 0 0 0 0 0 0 0 0 0 0 2 9 19 25 25 25 23 19 15 13 9 6 5 5 6 5 6 6 5 4 3 2 1 1 1 0 0 0 0 1 2 3 3 3 3 2 1 0
0 0 0 0 0 0 0 0 0 0 0 1 7 19 25 25 24 24 19 15 12 9 7 7 6 5 5 6 6 4 2 1 1 1 1 1 0 0 0 0 0 1 2 3 3 3 3 1 1
0 0 0 0 0 0 0 0 0 0 0 1 8 18 24 23 23 24 21 16 14 11 8 8 7 5 4 5 5 3 1 0 0 0 0 0 0 0 0 0 0 0 1 2 2 2 2 2 2
0 0 0 0 0 0 0 0 0 0 0 3 9 16 19 20 22 22 19 14 12 10 8 7 6 4 4 4 4 3 1 1 0 0 0 0 0 0 0 0 0 0 0 1 1 1 1 2 2
0 0 0 0 0 0 0 0 0 0 1 4 9 11 14 17 20 18 13 9 8 7 7 5 4 4 4 4 4 4 3 1 0 0 0 0 0 0 0 0 0 0 0 0 0 0 0 1 1
0 0 0 0 0 0 0 0 0 0 1 3 6 8 11 14 15 12 7 5 5 5 5 5 4 4 5 6 6 5 3 2 1 0 0 0 0 0 0 0 0 0 0 0 0 0 0 0 0
0 0 0 0 0 0 0 0 0 0 0 2 4 7 10 12 12 10 7 4 3 4 4 4 3 3 4 5 5 4 3 2 2 1 0 0 0 0 0 0 0 0 0 0 0 0 0 0 0
0 0 0 0 0 0 0 0 0 0 1 2 5 7 10 12 11 11 9 4 3 3 3 3 3 2 3 4 4 3 2 2 2 2 1 0 0 0 0 0 0 0 0 0 0 0 0 0 0

GEFSSGP_con_probscp_144.txt.gz
Probability
5 4 8 13 10 3 0 0 0 0 0 0 0 0 0 0 0 0 0 0 0 0 1 2 1 0 0 0 0 0 0 0 0 0 0 0 0 0 0 0 0 0 0 0 0 0 0 0 0
2 4 9 11 7 2 0 0 0 0 0 0 0 0 0 0 0 0 0 0 0 0 1 2 1 0 0 0 0 0 0 0 0 0 0 0 0 0 0 0 0 0 0 0 0 0 0 0 0
1 4 7 6 3 0 0 0 0 0 0 0 0 0 1 1 0 0 0 0 0 0 0 1 1 0 0 0 0 0 0 0 0 0 0 0 0 0 0 0 0 0 0 0 0 0 0 0 0
2 4 4 2 1 0 0 0 0 0 0 0 0 1 2 1 0 0 0 0 0 0 0 0 0 0 0 0 0 0 0 0 0 0 0 0 0 0 0 0 0 0 0 0 0 0 0 0 0
3 3 1 1 0 0 0 0 0 0 0 0 1 2 3 2 1 0 0 1 1 0 0 0 0 0 0 0 0 0 0 0 0 0 0 0 0 0 0 0 0 0 0 0 0 0 0 0 0
1 1 0 0 0 0 0 0 0 0 0 0 1 4 6 6 4 2 1 2 2 1 0 0 0 0 0 0 0 0 0 0 0 0 0 0 0 0 0 0 0 0 0 0 0 0 0 0 0
0 0 0 0 0 0 0 0 0 0 1 1 2 6 12 14 10 6 5 5 4 1 0 0 0 0 0 0 0 0 0 0 0 0 0 0 0 0 0 0 0 0 0 0 0 0 0 0 0
0 0 0 0 0 0 0 0 0 1 1 2 3 8 19 24 18 12 12 11 7 2 0 0 0 0 0 0 0 0 0 0 0 0 0 0 0 0 0 0 0 0 0 0 0 0 0 0 0
0 0 0 0 0 0 0 0 1 2 3 3 5 13 26 32 26 20 19 16 11 6 2 1 0 0 0 0 0 0 0 0 0 0 0 0 0 0 0 0 0 0 0 0 0 0 0 0 0
0 0 0 0 0 0 0 0 1 2 3 4 10 23 38 41 33 25 22 19 14 9 5 3 1 0 0 0 0 0 0 0 0 0 0 0 0 0 0 0 0 0 0 0 0 0 0 0 0
0 0 0 0 0 0 0 0 0 1 2 4 15 35 50 48 37 27 22 20 16 11 7 4 2 1 1 0 0 0 0 0 0 0 0 0 0 0 0 0 0 0 0 0 0 0 0 0 0
0 0 0 0 0 0 0 0 0 0 1 4 18 40 54 50 37 27 23 20 16 12 8 5 5 5 4 3 1 1 1 1 0 0 0 0 0 0 0 0 0 0 0 0 0 0 0 0 0
0 0 0 0 0 0 0 0 0 0 1 6 19 36 45 43 35 28 24 20 16 14 12 11 9 8 9 7 4 3 2 2 1 0 0 0 0 0 0 0 0 0 0 0 0 0 0 0 0
0 0 0 0 0 0 0 0 0 0 2 6 17 26 30 32 32 29 26 23 21 19 19 18 14 12 11 10 7 5 4 3 1 0 0 0 0 0 0 0 0 0 0 0 0 0 0 0 0
0 0 0 0 0 0 0 0 0 0 1 5 11 17 22 27 30 28 26 25 23 23 23 20 16 15 14 11 8 6 4 2 1 1 1 1 1 2 1 1 0 0 0 0 0 0 0 0 0
0 0 0 0 0 0 0 0 0 0 2 6 10 14 22 27 29 26 23 21 20 22 22 18 16 17 17 13 9 6 4 3 3 2 2 2 3 3 3 2 1 1 0 0 0 0 0 0 0
0 0 0 0 0 0 0 0 0 0 3 7 11 16 22 26 27 26 22 18 17 19 20 19 18 19 18 14 9 6 6 5 4 3 3 3 3 3 3 3 3 2 1 0 0 0 0 0 0
0 0 0 0 0 0 0 0 0 1 4 9 13 17 22 24 26 27 24 19 17 17 19 19 20 21 19 13 9 8 8 7 5 3 3 3 3 3 3 3 3 3 2 1 0 0 0 0 0
0 0 0 0 0 0 0 0 0 1 4 9 13 16 21 25 26 28 26 22 20 18 18 18 20 23 20 15 12 11 10 9 6 4 3 3 3 3 3 3 3 3 4 3 2 1 0 0 0
0 0 0 0 0 0 0 0 0 1 3 6 10 16 22 27 31 33 32 30 27 23 20 17 19 21 19 15 14 13 11 8 6 5 4 3 3 3 3 3 3 4 4 4 4 4 2 1 1
0 0 0 0 0 0 0 0 0 1 1 2 6 13 21 29 36 37 38 37 33 29 24 19 17 16 13 11 12 13 11 8 4 4 3 3 3 3 3 3 3 3 3 4 5 6 5 4 4
0 0 0 0 0 0 0 0 0 0 0 1 4 10 19 28 33 35 37 36 32 27 23 19 15 12 10 10 10 12 11 7 4 4 4 4 4 3 2 3 4 2 2 3 4 5 6 6 5
0 0 0 0 0 0 0 0 0 0 0 1 4 10 19 25 28 30 32 31 28 23 20 17 15 13 11 11 9 9 8 6 4 4 4 5 5 3 2 3 4 3 2 1 2 3 6 7 6
0 0 0 0 0 0 0 0 0 0 0 1 4 10 18 23 25 26 28 29 27 25 20 17 17 17 15 14 10 7 6 4 2 3 4 5 5 3 2 3 5 6 4 2 2 3 5 6 6
0 0 0 0 0 0 0 0 0 0 0 1 3 8 13 20 24 27 30 30 28 26 23 19 18 18 18 17 13 9 6 3 1 1 3 5 4 3 3 3 5 7 6 4 3 3 4 4 4
0 0 0 0 0 0 0 0 0 0 0 0 2 5 9 15 23 28 32 32 27 24 22 20 18 18 18 17 16 13 9 4 1 2 4 6 5 3 2 2 3 5 5 4 4 4 4 4 4
0 0 0 0 0 0 0 0 0 0 0 0 1 3 6 11 19 25 30 29 25 22 21 19 18 17 16 16 18 17 12 7 6 6 6 6 5 3 2 0 1 3 2 2 4 5 5 7 6
0 0 0 0 0 0 0 0 0 0 0 0 1 3 5 9 13 19 24 24 20 19 19 17 16 15 14 14 16 16 13 11 10 9 6 5 4 3 2 0 1 2 2 3 3 5 7 8 9
0 0 0 0 0 0 0 0 0 0 0 0 1 3 7 9 12 17 21 21 18 17 18 17 14 12 11 10 10 10 8 8 8 7 5 3 3 3 1 0 0 2 3 4 3 4 6 7 7
0 0 0 0 0 0 0 0 0 0 0 0 1 4 9 12 13 17 21 20 17 16 17 16 13 11 10 9 7 5 4 4 5 5 4 3 3 2 1 0 0 2 4 4 4 4 5 5 6

GEFSSGP_con_probscp_150.txt.gz
Probability
15 24 40 47 35 14 2 0 0 0 0 0 0 0 0 0 0 0 0 0 0 0 0 0 0 0 0 0 0 0 0 0 0 0 0 0 0 0 0 0 0 0 0 0 0 0 0 0 0
12 22 37 39 24 7 1 0 0 0 0 0 0 0 0 0 0 0 0 0 0 0 0 0 0 0 0 0 0 0 0 0 0 0 0 0 0 0 0 0 0 0 0 0 0 0 0 0 0
14 22 30 25 10 1 0 0 0 0 0 0 0 0 0 0 0 0 0 0 0 0 0 0 0 0 0 0 0 0 0 0 0 0 0 0 0 0 0 0 0 0 0 0 0 0 0 0 0
18 21 19 11 3 0 0 0 0 0 0 0 1 1 0 0 0 0 0 0 1 0 0 0 0 0 0 0 0 0 0 0 0 0 0 0 0 0 0 0 0 0 0 0 0 0 0 0 0
15 14 9 3 0 0 0 0 0 0 0 1 2 3 2 1 0 0 0 0 1 0 0 0 0 0 0 0 0 0 0 0 0 0 0 0 0 0 0 0 0 0 0 0 0 0 0 0 0
8 6 3 1 0 0 0 0 0 0 0 1 3 5 5 3 2 1 0 2 3 2 1 0 0 0 0 0 0 0 0 0 0 0 0 0 0 0 0 0 0 0 0 0 0 0 0 0 0
4 2 1 0 0 0 0 0 0 0 0 0 3 7 10 9 6 3 2 4 7 6 2 1 1 0 0 0 0 0 0 0 0 0 0 0 0 0 0 0 0 0 0 0 0 0 0 0 0
1 0 0 0 0 0 0 0 0 0 1 1 4 10 15 14 10 7 6 8 11 9 5 3 2 1 1 1 1 0 0 0 0 0 0 0 0 0 0 0 0 0 0 0 0 0 0 0 0
0 0 0 0 0 0 0 0 0 1 2 3 8 17 21 19 15 13 12 12 12 11 8 4 2 1 2 2 2 1 1 1 0 0 0 0 0 0 0 0 0 0 0 0 0 0 0 0 0
0 0 0 0 0 0 0 0 0 1 2 7 17 26 27 23 20 19 17 16 14 11 8 7 4 4 4 3 2 1 2 2 1 1 0 0 0 0 0 0 1 0 0 0 0 0 0 0 0
0 0 0 0 0 0 0 0 0 0 3 11 24 33 31 25 23 23 22 21 18 14 11 10 10 11 10 7 4 2 3 3 2 1 1 0 0 0 0 0 0 0 0 0 0 0 0 0 0
0 0 0 0 0 0 0 0 0 1 4 12 25 34 34 27 24 26 28 28 28 23 18 16 17 20 21 16 9 4 4 3 3 3 2 0 0 0 0 0 0 0 0 0 0 0 0 0 0
0 0 0 0 0 0 0 0 1 2 6 13 24 33 36 33 31 33 34 36 38 35 27 22 23 26 28 24 15 7 4 3 3 4 3 1 0 0 1 1 1 0 0 0 0 0 0 0 0
0 0 0 0 0 0 0 0 1 3 8 14 22 31 37 40 42 44 46 46 49 46 37 30 28 29 30 27 19 9 3 3 4 3 4 2 1 1 3 4 2 1 0 1 1 0 0 0 0
0 0 0 0 0 0 0 0 1 4 8 14 21 30 39 45 50 55 59 60 61 58 48 38 31 30 31 28 20 10 6 5 5 4 4 5 3 3 4 4 2 1 1 2 2 1 1 0 0
0 0 0 0 0 0 0 0 1 4 7 13 23 35 45 50 54 62 68 69 68 64 56 43 34 32 32 28 20 12 9 8 8 7 6 6 6 5 4 3 3 3 4 3 2 3 2 1 0
0 0 0 0 0 0 0 1 2 4 6 13 27 45 56 58 60 67 72 71 67 65 60 48 39 36 34 28 22 15 12 11 12 11 8 7 7 6 6 5 5 6 6 4 3 4 4 3 2
0 0 0 0 0 0 0 1 2 3 6 15 33 54 64 65 67 71 72 70 66 64 61 54 47 43 38 30 23 18 15 13 14 13 12 10 8 7 8 8 8 9 8 7 6 6 6 6 5
0 0 0 0 0 0 0 0 1 2 7 17 36 56 67 70 72 72 70 69 67 65 63 59 54 50 43 32 23 18 16 15 15 15 16 15 10 7 7 9 10 10 10 11 10 9 8 8 8
0 0 0 0 0 0 0 0 1 3 7 16 32 51 62 69 73 73 71 70 68 65 63 62 58 54 47 35 24 17 15 14 14 15 18 18 13 9 9 10 11 10 10 12 12 10 9 8 8
0 0 0 0 0 0 0 0 3 6 8 12 24 40 53 64 72 74 73 71 67 63 61 61 60 57 50 37 24 16 14 12 12 14 16 18 16 13 12 12 13 12 10 10 10 9 8 7 6
0 0 0 0 0 0 0 0 3 8 11 12 19 31 45 57 66 72 72 69 64 59 57 58 60 59 51 39 26 18 15 13 12 13 15 16 16 14 13 15 17 17 13 10 9 8 8 7 5
0 0 0 0 0 0 0 0 2 8 13 14 17 27 41 51 60 67 69 65 60 56 55 56 59 59 52 42 32 24 20 18 16 14 15 16 16 13 12 15 20 19 15 11 9 9 10 10 8
0 0 0 0 0 0 0 0 1 4 9 14 18 26 39 48 56 63 64 61 59 57 57 58 58 56 50 43 37 30 26 23 20 17 15 16 16 13 12 14 17 16 14 14 14 14 15 13 12
0 0 0 0 0 0 0 0 0 2 5 10 19 27 36 44 51 56 57 59 61 61 60 59 56 51 46 41 36 33 30 27 24 20 17 15 14 12 11 13 16 15 13 14 16 17 16 15 14
0 0 0 0 0 0 0 1 2 3 4 8 16 25 32 38 43 45 48 55 59 59 58 56 50 45 40 36 34 34 32 28 25 22 20 16 14 12 11 14 16 15 12 11 13 14 14 15 15
0 0 0 0 0 0 0 1 4 6 5 7 13 22 30 34 37 40 43 48 53 55 53 49 44 40 36 34 33 32 30 27 23 22 21 18 15 13 12 13 15 14 12 10 11 12 12 13 15
0 0 0 0 0 0 0 1 4 7 6 6 12 22 29 30 33 39 43 47 51 53 50 44 41 38 35 34 32 29 26 24 22 19 18 16 14 13 12 12 13 12 10 9 10 10 11 11 12
0 0 0 0 0 0 0 0 2 4 6 7 13 23 28 28 31 40 48 51 52 52 48 43 40 37 35 34 33 29 25 22 19 16 15 14 12 12 12 12 11 9 5 4 5 7 9 9 7
0 0 0 0 0 0 0 0 1 2 5 8 16 24 27 26 29 40 53 55 53 51 48 43 39 37 35 34 34 30 25 21 17 13 12 12 11 13 14 12 10 5 2 2 3 6 7 6 4

GEFSSGP_con_probscp_156.txt.gz
Probability
6 5 5 6 4 1 0 0 0 0 0 0 0 0 0 0 0 0 0 0 0 0 0 0 0 0 0 0 0 0 0 0 0 0 0 0 0 0 0 0 0 0 0 0 0 0 0 0 0
4 4 5 5 3 0 0 0 0 0 0 0 0 0 0 0 0 0 0 0 0 0 0 0 0 0 0 0 0 0 0 0 0 0 0 0 0 0 0 0 0 0 0 0 0 0 0 0 0
3 4 4 3 1 0 0 0 1 1 0 0 0 0 0 0 0 0 0 0 0 0 0 0 0 0 0 0 0 0 0 0 0 0 0 0 0 0 0 0 0 0 0 0 0 0 0 0 0
4 4 3 1 0 0 0 1 2 2 1 1 0 0 0 1 2 2 1 1 1 1 1 0 0 0 0 0 0 0 0 0 0 0 0 0 0 0 0 0 0 0 0 0 0 0 0 0 0
3 3 2 0 0 0 1 3 5 5 4 2 2 1 1 3 6 5 3 3 4 3 2 2 2 1 0 0 0 0 0 0 0 0 0 0 0 0 0 0 0 0 0 0 0 0 0 0 0
1 1 0 0 0 0 2 4 5 6 5 3 3 3 3 6 8 8 6 5 6 6 4 3 3 2 1 0 0 0 0 0 0 0 0 0 0 0 0 0 0 0 0 0 0 0 0 0 0
0 0 0 0 0 0 1 3 4 4 4 3 3 4 5 8 11 11 10 9 8 8 6 4 3 3 2 0 0 0 0 0 0 0 0 0 0 0 0 0 0 0 0 0 0 0 0 0 0
0 0 0 0 0 0 1 2 2 3 3 3 4 5 7 13 18 18 15 13 11 8 5 3 2 2 1 0 0 0 0 0 0 0 0 0 0 0 0 0 0 0 0 0 0 0 0 0 0
0 0 0 0 0 0 1 2 3 4 5 5 6 9 14 21 30 29 22 18 14 9 4 1 0 0 0 0 0 0 0 0 0 0 0 0 0 0 0 0 0 0 0 0 0 0 0 0 0
0 0 0 0 0 1 2 2 3 5 8 9 10 16 23 29 37 38 31 24 18 10 4 1 0 0 0 0 0 0 0 0 0 0 0 0 0 0 0 0 0 0 0 0 0 0 0 0 0
0 0 0 0 0 1 2 2 3 5 8 10 15 22 27 30 35 38 36 30 22 13 6 2 1 0 0 0 0 0 0 0 0 0 0 0 0 0 0 0 0 0 0 0 0 0 0 0 0
0 0 0 0 0 1 2 3 3 4 7 13 18 23 26 26 28 33 34 31 27 18 9 4 2 1 0 1 1 0 0 0 0 0 0 0 0 0 0 0 0 0 0 0 0 0 0 0 0
0 0 0 0 0 1 2 4 4 5 12 19 21 22 23 23 25 30 33 33 29 23 14 9 8 6 4 3 2 1 1 0 0 0 0 0 0 0 0 0 0 0 0 0 0 0 0 0 0
0 0 0 0 0 1 4 5 5 9 18 25 24 23 22 23 26 32 36 34 30 25 20 18 18 15 10 6 5 4 2 1 0 0 1 0 0 0 0 0 0 0 0 0 0 0 0 0 0
0 0 0 0 0 2 5 7 7 13 24 29 27 26 26 27 30 35 37 35 31 29 27 26 25 22 15 9 6 5 3 1 1 0 1 1 1 0 0 0 0 0 0 0 0 0 0 0 0
0 0 0 0 0 1 5 9 10 18 29 33 31 30 30 32 34 36 37 36 34 33 31 29 27 23 16 9 8 7 4 3 2 1 1 2 2 1 1 0 0 0 0 0 0 0 0 0 0
0 0 0 0 0 0 2 7 12 21 32 38 37 36 36 37 38 39 41 41 37 34 32 29 27 23 17 12 10 9 6 4 4 2 1 2 2 2 2 1 1 1 1 1 0 1 1 1 0
0 0 0 0 0 0 1 4 11 22 34 40 40 40 41 42 42 44 47 47 41 34 31 29 26 23 20 15 12 11 8 6 5 3 1 1 1 2 3 3 2 2 2 2 1 1 2 1 1
0 0 0 0 0 0 1 4 9 20 34 41 40 43 47 47 47 49 53 53 46 37 33 30 26 22 20 16 13 10 7 6 5 3 1 0 0 2 3 3 3 3 3 3 2 1 1 1 0
0 0 0 0 0 0 1 2 6 15 28 37 41 46 51 52 51 54 56 56 51 44 39 35 28 21 17 14 10 6 5 4 3 1 1 1 0 1 2 3 3 3 3 3 3 2 0 0 0
0 0 0 0 0 0 0 1 2 8 19 31 40 50 55 56 55 56 57 55 50 46 43 39 30 20 14 11 6 4 3 2 1 1 2 2 1 0 1 2 3 4 4 3 2 1 0 0 0
0 0 0 0 0 0 0 0 1 5 15 27 39 51 58 58 56 55 55 52 46 43 41 38 32 22 15 10 7 3 2 1 0 1 2 2 2 1 0 1 2 3 4 3 1 0 0 0 0
0 0 0 0 0 0 0 0 1 4 12 24 38 49 56 58 55 50 48 46 42 40 40 38 35 27 19 14 9 4 2 1 0 0 1 2 2 1 1 0 0 2 2 1 0 0 0 0 0
0 0 0 0 0 0 0 0 1 4 10 22 38 48 53 55 52 44 40 39 39 40 42 40 36 31 23 16 10 5 3 2 1 2 2 3 3 3 2 1 1 1 1 0 0 0 0 0 0
0 0 0 0 0 0 0 0 1 4 10 24 40 47 50 51 47 41 37 35 38 42 45 42 36 31 25 17 9 5 3 3 4 4 3 3 3 3 3 2 2 2 1 1 1 0 0 0 0
0 0 0 0 0 0 0 1 2 7 15 27 39 43 45 46 43 38 35 36 40 44 45 40 33 29 25 17 9 5 3 4 5 4 3 3 3 2 2 2 1 1 1 1 1 0 0 0 0
0 0 0 0 0 0 0 1 3 10 20 29 35 37 39 42 40 35 34 36 39 41 41 36 30 26 24 19 12 7 5 5 5 4 4 3 2 2 2 2 2 1 1 1 1 0 0 0 0
0 0 0 0 0 0 0 1 3 10 20 28 31 32 33 37 37 35 35 36 36 38 38 33 27 23 22 19 14 9 7 6 6 6 6 5 4 3 3 3 3 2 1 0 0 0 0 0 0
0 0 0 0 0 0 0 0 1 6 14 23 27 29 30 31 34 36 38 37 36 37 37 31 25 21 18 16 13 9 7 6 6 5 5 5 4 3 2 2 2 2 1 0 0 0 0 0 0
0 0 0 0 0 0 0 0 1 3 10 18 23 27 29 29 32 37 40 39 37 38 37 30 24 19 15 13 11 7 6 5 4 3 3 3 2 1 1 1 1 1 1 0 0 0 0 0 0

GEFSSGP_con_probscp_162.txt.gz
Probability
4 3 2 1 0 0 0 0 0 0 0 0 0 0 0 0 0 0 0 0 0 0 0 0 0 0 0 0 0 0 0 0 0 0 0 0 0 0 0 0 0 0 0 0 0 0 0 0 0
2 2 2 1 0 0 0 0 0 0 0 0 0 0 0 0 0 0 0 0 0 0 0 0 0 0 0 0 0 0 0 0 0 0 0 0 0 0 0 0 0 0 0 0 0 0 0 0 0
2 1 1 0 0 0 0 0 0 0 0 0 0 0 0 0 0 0 0 0 0 0 0 0 0 0 0 0 0 0 0 0 0 0 0 0 0 0 0 0 0 0 0 0 0 0 0 0 0
2 1 0 0 0 0 0 1 1 0 0 0 0 0 0 0 0 0 0 0 1 1 1 0 0 0 0 0 0 0 0 0 0 0 0 0 0 0 0 0 0 0 0 0 0 0 0 0 0
1 0 0 0 0 0 0 1 1 1 0 0 0 0 0 0 0 0 0 0 2 2 1 0 0 0 0 0 0 0 0 0 0 0 0 0 0 0 0 0 0 0 0 0 0 0 0 0 0
0 0 0 0 0 0 0 1 1 1 1 1 0 0 0 0 1 0 0 0 2 3 2 1 0 0 0 0 0 0 0 0 0 0 0 0 0 0 0 0 0 0 0 0 0 0 0 0 0
0 0 0 0 0 0 0 0 0 1 1 1 0 0 0 0 1 0 0 1 2 3 3 2 1 0 0 0 0 0 0 0 0 0 0 0 0 0 0 0 0 0 0 0 0 0 0 0 0
0 0 0 0 0 0 0 0 0 0 0 0 0 0 0 2 3 3 2 2 3 3 3 2 1 0 0 0 0 0 0 0 0 0 0 0 0 0 0 0 0 0 0 0 0 0 0 0 0
0 0 0 0 0 0 0 0 0 0 0 1 1 1 4 8 10 9 6 4 3 3 3 1 1 0 0 0 0 0 0 0 0 0 0 0 0 0 0 0 0 0 0 0 0 0 0 0 0
0 0 0 0 0 0 0 0 1 1 1 1 3 7 15 19 17 13 9 6 5 4 3 2 1 1 0 0 0 0 0 0 0 0 0 0 0 0 0 0 0 0 0 0 0 0 0 0 0
0 0 0 0 0 0 0 1 2 2 1 2 7 18 27 26 18 12 9 8 8 7 3 2 2 1 0 0 0 0 0 0 0 0 0 0 0 0 0 0 0 0 0 0 0 0 0 0 0
0 0 0 0 0 0 0 1 2 2 2 5 14 26 31 24 16 12 9 8 9 8 3 1 1 1 0 0 0 0 0 0 0 0 0 0 0 0 0 0 0 0 0 0 0 0 0 0 0
0 0 0 0 0 0 1 2 2 2 4 10 18 25 25 19 14 13 11 8 7 5 2 1 1 0 0 0 0 0 0 0 0 0 0 0 0 0 0 0 0 0 0 0 0 0 0 0 0
0 0 0 0 0 0 1 2 2 3 7 12 17 18 16 15 15 15 12 9 6 3 2 3 2 1 1 1 0 0 0 0 0 0 0 0 0 0 0 0 0 0 0 0 0 0 0 0 0
0 0 0 0 0 0 1 2 3 4 9 13 13 13 12 14 16 16 14 10 6 3 3 5 4 3 2 2 1 0 0 0 0 0 0 0 0 0 0 0 0 0 0 0 0 0 0 0 0
0 0 0 0 0 0 1 3 3 7 12 15 15 14 13 14 14 15 15 11 6 3 3 5 5 4 3 3 2 1 0 0 0 0 0 0 0 0 0 0 0 0 0 0 0 0 0 0 0
0 0 0 0 0 0 2 3 5 9 14 18 19 17 15 14 14 15 16 13 7 4 3 4 5 5 4 3 3 2 0 0 0 0 0 0 0 0 0 0 0 0 0 1 1 1 0 0 0
0 0 0 0 0 0 1 2 5 9 14 18 20 18 17 15 14 15 17 15 10 7 7 6 5 5 4 3 2 1 0 0 0 0 0 0 0 0 0 0 0 0 1 2 2 2 1 1 1
0 0 0 0 0 0 0 1 3 7 12 17 19 19 20 20 18 16 17 17 14 12 11 9 6 4 2 2 1 0 0 0 0 0 0 0 0 0 0 0 0 0 1 2 3 3 3 2 2
0 0 0 0 0 0 0 0 1 4 8 12 16 19 22 24 23 20 20 21 19 16 15 13 9 5 2 1 0 0 0 0 0 0 0 0 0 0 0 0 0 0 0 1 1 2 2 2 2
0 0 0 0 0 0 0 0 0 1 2 5 11 17 23 26 26 25 25 24 22 19 17 15 12 7 2 0 0 0 0 0 0 0 0 0 0 0 0 0 0 0 0 0 0 1 1 1 1
0 0 0 0 0 0 0 0 0 0 0 1 6 13 21 26 28 28 28 25 22 18 16 15 13 8 4 1 0 0 0 0 0 0 0 0 0 0 0 1 1 1 0 0 0 0 0 0 0
0 0 0 0 0 0 0 0 0 0 0 1 4 9 16 24 28 28 26 23 19 16 15 13 11 8 4 2 1 0 0 0 0 0 0 0 0 0 0 1 2 1 1 0 0 0 0 0 0
0 0 0 0 0 0 0 0 0 0 0 1 3 6 11 18 24 25 23 21 19 17 15 13 9 7 4 2 1 0 0 0 0 0 0 0 0 0 0 1 1 0 0 0 0 0 0 0 0
0 0 0 0 0 0 0 0 0 0 0 1 3 5 7 12 17 21 23 23 22 20 19 14 9 6 4 2 1 0 0 0 0 0 0 0 0 0 0 0 0 0 0 0 0 0 0 0 0
0 0 0 0 0 0 0 0 0 0 0 1 2 4 6 9 12 16 21 25 24 22 22 17 11 7 5 3 1 0 0 0 0 0 0 0 1 0 0 0 0 0 0 0 0 0 0 0 0
0 0 0 0 0 0 0 0 0 0 1 2 3 5 7 10 11 12 17 21 22 22 20 16 11 7 5 4 3 1 0 0 0 0 0 0 0 0 0 0 0 0 0 0 0 0 0 0 0
0 0 0 0 0 0 0 0 0 0 1 3 5 7 9 12 11 10 13 16 17 18 16 12 9 6 5 5 3 1 0 0 0 0 0 0 0 0 0 0 0 0 0 0 0 0 0 0 0
0 0 0 0 0 0 0 0 0 0 1 2 5 7 9 11 9 8 10 13 14 13 12 10 7 5 4 4 3 1 0 0 0 0 0 0 0 0 0 1 1 1 0 0 0 0 0 0 0
0 0 0 0 0 0 0 0 0 0 0 1 3 6 9 9 8 7 9 13 13 11 11 10 7 4 3 3 2 1 0 0 0 0 0 0 0 0 1 2 2 2 1 0 0 0 0 0 0

GEFSSGP_con_probscp_168.txt.gz
Probability
8 8 11 11 5 1 0 0 0 0 0 0 0 0 0 0 0 0 0 0 0 0 0 0 0 0 0 0 0 0 0 0 0 0 0 0 0 0 0 0 0 0 0 0 0 0 0 0 0
7 7 10 9 3 0 0 0 0 0 0 0 0 0 0 0 0 0 0 0 0 0 0 0 0 0 0 0 0 0 0 0 0 0 0 0 0 0 0 0 0 0 0 0 0 0 0 0 0
7 8 7 4 1 0 0 0 0 0 0 0 0 0 0 0 0 0 0 0 0 0 0 0 0 0 0 0 0 0 0 0 0 0 0 0 0 0 0 0 0 0 0 0 0 0 0 0 0
8 7 3 1 0 0 0 0 0 0 0 0 0 0 0 0 0 0 0 0 0 0 0 0 0 0 0 0 0 0 0 0 0 0 0 0 0 0 0 0 0 0 0 0 0 0 0 0 0
4 3 1 0 0 0 0 0 0 0 0 0 0 0 0 0 0 0 0 0 0 0 0 0 0 0 0 0 0 0 0 0 0 0 0 0 0 0 0 0 0 0 0 0 0 0 0 0 0
1 0 0 0 0 0 0 0 0 0 0 0 0 0 1 1 0 0 0 0 0 0 0 0 0 0 0 0 0 0 0 0 0 0 0 0 0 0 0 0 0 0 0 0 0 0 0 0 0
0 0 0 0 0 0 0 0 0 0 0 0 0 1 2 3 2 2 1 0 0 0 0 0 0 0 0 0 0 0 0 0 0 0 0 0 0 0 0 0 0 0 0 0 0 0 0 0 0
0 0 0 0 0 0 0 0 0 0 0 0 0 1 5 8 7 4 2 1 1 0 0 0 0 0 0 0 0 0 0 0 0 0 0 0 0 0 0 0 0 0 0 0 0 0 0 0 0
0 0 0 0 0 0 0 0 0 0 0 0 0 3 9 14 12 8 4 3 2 1 0 0 0 0 0 0 0 0 0 0 0 0 0 0 0 0 0 0 0 0 0 0 0 0 0 0 0
0 0 0 0 0 0 0 0 0 0 0 0 3 10 17 18 14 10 6 5 3 2 1 0 0 0 0 0 0 0 0 1 1 1 1 0 0 0 0 0 0 0 0 0 0 0 0 0 0
0 0 0 0 0 0 0 0 0 0 0 1 7 19 24 19 13 10 8 7 4 3 2 1 0 0 0 0 0 1 1 2 2 2 2 1 1 0 0 0 0 0 0 0 0 0 0 0 0
0 0 0 0 0 0 0 0 0 0 0 1 8 20 23 17 12 10 10 9 6 4 2 1 0 0 0 1 1 2 3 3 3 3 3 3 2 1 0 0 0 0 0 0 0 0 0 0 0
0 0 0 0 0 0 0 0 0 1 1 2 8 16 18 15 12 12 13 11 8 6 4 3 2 1 1 2 3 3 3 3 3 3 3 3 2 1 0 0 0 0 0 0 0 0 0 0 0
0 0 0 0 0 0 0 0 1 2 4 4 7 13 14 13 13 15 16 14 11 9 8 7 6 6 5 4 3 3 3 3 3 3 3 3 2 1 0 0 0 0 0 0 0 0 0 0 0
0 0 0 0 0 0 0 0 1 3 5 5 7 10 13 13 14 17 18 15 12 11 11 11 11 11 11 8 4 3 2 2 2 3 3 3 2 1 0 0 0 0 0 0 0 0 0 0 0
0 0 0 0 0 0 0 1 1 2 4 6 8 10 14 14 13 14 15 14 12 11 12 13 13 14 13 10 5 2 1 1 1 1 2 2 1 1 0 0 0 0 0 0 0 0 0 0 0
0 0 0 0 0 0 0 1 2 2 3 6 9 13 15 16 13 11 11 12 12 11 12 14 15 15 12 8 5 3 1 1 0 1 1 0 0 0 0 0 0 0 0 0 0 0 0 0 0
0 0 0 0 0 0 0 1 2 2 3 5 8 12 16 16 14 12 11 14 16 14 13 15 17 15 12 9 7 5 3 1 1 1 1 0 0 0 0 0 0 0 0 0 0 0 0 0 1
0 0 0 0 0 0 0 1 2 2 2 4 7 11 14 15 14 14 15 18 20 20 18 17 18 17 14 12 9 6 3 1 1 2 1 0 0 0 1 1 1 1 0 0 0 0 0 1 2
0 0 0 0 0 0 0 0 1 1 1 3 7 11 13 14 16 19 21 22 24 25 23 20 20 19 16 12 9 6 3 1 1 2 2 1 0 0 1 1 1 1 0 0 0 0 0 1 2
0 0 0 0 0 0 0 0 0 0 0 2 6 9 11 14 18 23 24 23 24 25 23 21 21 21 17 12 8 5 3 1 0 1 2 2 1 1 1 1 1 0 0 0 0 0 0 0 1
0 0 0 0 0 0 0 0 0 0 1 2 4 6 9 13 18 22 24 22 20 20 20 19 20 19 16 13 9 7 5 2 1 1 2 2 1 1 1 1 0 0 0 0 0 1 2 2 1
0 0 0 0 0 0 0 0 0 0 1 2 3 4 8 13 15 19 23 20 16 15 16 17 17 16 14 14 12 10 8 5 3 2 3 3 1 1 1 1 0 0 0 0 1 2 4 5 4
0 0 0 0 0 0 0 0 0 0 1 1 2 3 9 14 15 19 23 21 16 14 14 16 18 17 16 15 13 12 10 7 6 5 5 4 3 3 2 1 0 0 0 1 3 4 6 7 6
0 0 0 0 0 0 0 0 0 0 1 1 0 2 9 15 18 20 22 21 19 18 16 18 21 21 17 16 15 14 12 9 8 8 8 7 5 4 3 1 0 0 0 2 5 7 8 8 8
0 0 0 0 0 0 0 0 0 0 1 0 0 2 8 15 20 21 20 19 20 19 18 19 22 22 18 15 15 16 15 11 8 8 7 7 6 4 3 2 1 1 2 4 7 8 9 9 8
0 0 0 0 0 0 0 0 0 0 0 0 1 3 8 15 22 23 21 18 17 17 16 18 21 22 19 16 16 17 17 13 9 7 6 6 5 4 3 3 3 3 4 6 8 8 9 10 9
0 0 0 0 0 0 0 0 0 0 0 0 1 4 10 17 24 25 22 17 16 17 17 17 19 21 20 19 18 18 17 14 11 9 7 6 5 4 4 4 4 5 6 8 9 8 9 10 10
0 0 0 0 0 0 0 0 0 0 0 1 3 8 14 20 24 25 21 17 18 20 20 18 17 20 22 22 21 19 16 13 12 12 10 8 6 5 5 5 4 5 7 8 10 9 8 8 9
0 0 0 0 0 0 0 0 0 0 1 2 6 11 16 20 25 25 21 18 20 22 22 20 18 20 22 22 23 20 16 13 13 13 12 9 8 7 6 5 4 5 7 8 9 8 6 6 7

GEFSSGP_con_probscp_174.txt.gz
Probability
6 17 38 45 29 9 1 0 0 0 0 0 0 0 0 0 0 0 0 1 2 1 0 0 0 0 0 0 0 0 0 0 0 1 2 2 1 0 0 0 0 0 0 0 0 0 0 0 0
9 21 38 37 18 4 0 0 0 0 0 0 0 0 0 0 0 0 1 2 2 1 1 0 0 0 0 0 0 0 0 0 0 0 1 1 0 0 0 0 0 0 0 0 0 0 0 0 0
14 23 29 20 7 0 0 0 0 0 0 0 0 0 0 0 0 1 2 2 2 2 2 1 0 0 0 0 0 0 0 0 0 0 0 0 0 0 0 0 0 0 0 0 0 0 0 0 0
20 22 17 7 2 0 0 0 0 0 0 0 0 0 0 0 0 1 2 2 3 3 2 1 0 0 0 0 0 0 0 0 0 0 0 0 0 0 0 0 0 0 0 0 0 0 0 0 0
20 17 8 2 0 0 0 0 0 0 0 1 1 1 1 0 0 1 1 2 3 3 2 0 0 0 0 0 0 0 0 0 0 0 0 0 0 0 0 0 0 0 0 0 0 0 0 0 0
12 8 3 0 0 0 0 1 0 0 0 1 2 3 3 2 0 0 1 1 2 3 1 0 1 0 0 0 1 1 1 0 0 0 0 0 0 0 0 0 0 0 0 0 0 0 0 0 0
5 3 1 0 0 0 0 0 0 0 0 1 2 3 4 3 1 0 0 1 2 3 1 0 1 1 1 1 2 2 2 1 0 0 0 0 0 0 0 0 0 0 0 0 0 0 0 0 0
1 1 0 0 0 0 0 0 0 0 0 1 2 4 6 6 3 1 0 1 4 5 2 1 1 2 2 2 2 3 3 2 1 1 0 0 0 0 0 0 0 0 0 0 0 0 0 0 0
0 0 0 0 0 0 0 0 0 0 1 2 4 8 11 9 6 3 3 5 8 7 4 4 3 3 3 2 2 3 3 3 2 2 1 0 0 0 0 0 0 0 0 0 0 0 0 0 0
0 0 0 0 0 0 0 0 0 0 2 4 10 15 16 14 10 7 8 10 11 9 7 7 6 5 3 2 3 4 3 3 3 3 2 1 0 0 0 0 0 0 0 0 0 0 0 0 0
0 0 0 0 0 0 0 0 0 0 2 6 15 20 21 19 15 12 12 14 14 11 9 9 9 7 5 4 3 3 3 4 4 4 3 2 1 0 0 0 0 0 0 0 0 0 0 0 0
0 0 0 0 0 0 0 0 0 0 1 6 13 20 23 22 18 16 17 19 19 17 14 12 12 10 9 6 3 1 2 3 4 4 4 3 2 1 0 0 0 0 0 0 0 0 0 0 0
0 0 0 0 0 0 0 0 0 0 1 4 9 15 21 23 22 23 26 29 29 26 22 18 16 15 12 9 5 2 2 3 4 5 4 3 3 2 1 0 0 0 1 1 0 0 0 0 0
0 0 0 0 0 0 0 0 0 1 2 4 8 14 19 23 28 34 37 37 37 34 29 26 23 20 16 12 8 6 4 4 4 4 5 4 3 3 2 1 1 1 2 2 1 0 0 0 0
0 0 0 0 0 0 0 0 0 2 4 6 11 18 23 25 32 41 44 42 41 39 35 32 28 25 20 15 12 8 4 2 3 4 5 6 5 4 3 1 1 2 3 3 2 1 0 0 0
0 0 0 0 0 0 0 0 1 3 6 10 18 27 33 33 35 43 48 47 46 44 40 35 30 27 23 17 14 10 6 4 4 5 6 7 6 4 3 1 1 1 2 3 2 1 1 1 0
0 0 0 0 0 0 0 0 1 3 6 11 20 32 41 42 43 46 50 52 52 50 46 39 33 29 24 18 15 14 10 8 8 8 9 8 5 4 4 2 1 0 1 2 1 1 1 2 1
0 0 0 0 0 0 0 0 0 2 5 10 19 31 43 48 49 49 49 52 57 57 53 46 37 31 25 19 18 16 13 12 13 13 11 8 5 4 5 4 2 1 1 2 1 0 1 2 1
0 0 0 0 0 0 0 0 0 1 3 9 18 31 43 49 51 52 52 52 58 63 60 51 42 35 29 24 20 19 17 15 15 16 14 9 5 4 5 4 3 2 2 3 1 0 0 1 1
0 0 0 0 0 0 0 0 1 1 1 6 17 30 42 50 57 61 58 55 60 67 65 56 47 40 35 30 25 21 19 18 16 18 17 12 7 5 5 5 4 3 3 3 1 0 1 1 1
0 0 0 0 0 0 0 1 2 1 1 3 11 24 38 51 63 69 65 60 61 65 64 58 51 44 38 34 28 23 21 21 20 21 22 18 12 9 8 7 5 4 4 3 1 1 3 4 4
0 0 0 0 0 0 0 0 1 0 1 4 7 16 29 46 61 68 68 63 58 56 58 59 55 47 38 32 27 23 23 24 25 25 24 21 17 15 13 11 10 8 5 4 3 4 7 8 7
0 0 0 0 0 0 0 0 0 0 1 4 6 10 22 38 53 64 68 63 53 48 52 60 60 51 39 29 22 21 23 25 25 25 23 22 21 19 16 16 16 14 10 8 6 7 9 10 10
0 0 0 0 0 0 0 0 0 0 0 2 4 8 18 32 44 57 64 61 52 47 51 61 64 56 43 30 22 21 22 24 25 24 24 25 24 20 17 17 19 18 15 13 11 10 11 11 11
0 0 0 0 0 0 0 0 0 0 0 2 4 7 15 25 37 47 55 56 53 49 53 63 67 61 49 37 28 25 24 25 27 28 28 29 26 20 17 17 17 17 16 15 14 13 11 11 11
0 0 0 0 0 0 0 0 0 0 1 2 5 7 11 17 28 39 47 51 52 51 53 61 68 65 55 44 36 31 28 29 31 32 31 29 25 18 17 18 16 15 16 16 15 14 13 12 12
0 0 0 0 0 0 0 0 1 2 2 5 8 8 9 13 22 33 42 48 50 50 52 57 63 64 56 49 42 36 32 32 34 33 30 27 21 16 16 17 15 15 15 16 15 14 14 16 16
0 0 0 0 1 0 0 0 3 5 7 9 11 11 12 16 22 30 40 45 46 48 51 54 60 62 58 51 45 39 36 35 35 33 29 23 18 15 16 16 16 15 15 15 15 15 16 17 18
0 0 0 0 1 0 0 1 5 8 10 12 14 16 18 20 25 32 40 43 43 46 51 55 60 63 60 54 48 44 43 41 38 34 28 22 18 16 17 18 17 16 15 15 16 17 17 17 16
0 0 0 1 1 1 0 2 5 8 10 11 14 17 20 22 27 34 42 44 42 45 51 56 60 63 60 56 52 49 47 46 41 34 29 24 19 17 17 19 18 16 15 16 17 18 18 16 14

GEFSSGP_con_probscp_180.txt.gz
Probability
17 11 4 2 1 0 0 0 0 0 0 0 0 0 0 0 1 1 0 0 1 2 1 0 0 0 0 0 0 0 0 0 0 0 0 0 0 0 0 0 0 0 0 0 0 0 0 0 0
8 6 2 1 0 0 0 0 0 0 0 0 0 0 0 1 2 2 1 2 2 3 2 1 1 1 1 1 0 0 0 0 0 0 0 0 0 0 0 0 0 0 0 0 0 0 0 0 0
2 1 0 0 0 0 0 0 0 0 0 0 0 0 1 3 4 4 4 4 4 3 3 2 2 3 2 2 1 0 0 0 0 0 0 0 0 0 0 0 0 0 0 0 0 0 0 0 0
1 1 1 0 0 0 0 0 0 1 1 1 1 0 1 4 6 6 6 5 4 3 3 3 4 4 3 3 2 1 0 0 0 0 0 0 0 0 0 0 0 0 0 0 0 0 0 0 0
2 2 2 1 0 0 0 0 0 1 3 3 3 2 3 6 8 7 6 5 4 3 3 3 4 4 3 3 2 1 0 0 0 0 0 0 0 0 0 0 0 0 0 0 0 0 0 0 0
3 3 2 1 0 0 0 0 1 2 3 5 5 5 5 8 11 9 6 4 3 3 3 2 2 3 2 1 1 1 0 0 0 0 0 0 0 0 0 0 0 0 0 0 0 0 0 0 0
2 2 1 0 0 0 0 0 2 3 3 5 6 5 6 9 12 12 7 4 3 3 2 1 1 1 1 1 1 1 1 2 1 1 0 0 0 0 0 0 0 0 0 0 0 0 0 0 0
1 1 0 0 0 0 0 0 1 2 3 5 6 5 7 11 15 16 12 7 5 4 3 1 0 0 0 2 3 2 2 2 2 2 1 1 0 0 0 0 0 0 0 0 0 0 0 0 0
0 0 0 0 0 0 0 0 1 2 4 6 6 6 8 14 20 22 18 12 8 5 3 1 1 0 0 1 3 2 1 1 1 2 2 1 0 0 0 0 0 0 0 0 0 0 0 0 0
0 0 0 0 0 0 1 1 1 2 4 6 8 9 11 17 23 26 22 17 13 8 4 1 0 0 0 0 1 1 0 0 0 1 1 1 0 0 0 0 0 0 0 0 0 0 0 0 0
0 0 0 0 0 1 2 3 1 1 3 7 11 13 14 18 22 23 23 22 18 13 7 3 1 1 0 0 0 0 0 0 0 0 0 0 0 0 0 0 0 0 0 0 0 0 0 0 0
0 0 0 0 0 1 2 2 1 2 5 8 12 14 15 17 17 18 21 24 24 21 15 8 3 1 0 0 0 0 0 0 0 0 0 0 0 0 0 0 0 0 0 0 0 0 0 0 0
0 0 0 0 0 0 1 1 2 5 9 12 13 13 13 15 16 17 19 23 27 28 23 15 8 3 1 0 0 0 0 0 0 0 0 0 0 0 0 0 0 0 0 0 0 0 0 0 0
0 0 0 0 0 0 0 1 3 8 14 17 15 14 14 16 20 20 20 23 27 29 26 20 14 8 3 2 1 1 0 0 0 0 0 0 0 0 0 0 0 0 0 0 0 0 0 0 0
0 0 0 0 0 0 0 1 4 11 17 18 18 18 19 22 25 25 23 26 30 30 26 22 19 15 8 4 2 1 1 1 1 0 0 1 1 0 0 0 0 0 0 0 0 0 0 0 0
0 0 0 0 0 0 0 1 4 11 17 19 20 21 23 26 28 29 29 31 34 33 28 25 23 19 12 6 4 2 2 2 2 1 1 1 2 1 0 0 0 0 0 0 0 0 0 0 0
0 0 0 0 0 0 0 1 2 9 18 22 23 23 25 27 30 33 36 37 36 34 31 29 26 21 14 9 5 3 4 5 5 2 1 1 2 2 1 1 0 0 0 0 0 0 0 0 0
0 0 0 0 0 0 0 0 1 6 16 24 26 25 27 29 30 36 41 42 38 35 33 31 27 21 16 11 6 4 5 7 6 3 1 1 1 2 2 1 0 0 0 0 0 0 0 0 0
0 0 0 0 0 0 0 0 0 2 10 21 27 30 31 31 32 40 48 49 44 39 35 31 26 20 15 10 6 5 6 7 6 4 2 0 1 2 3 1 0 0 0 0 0 0 0 0 0
0 0 0 0 0 0 0 0 0 1 5 15 25 32 35 35 39 47 55 56 52 46 41 34 26 20 14 9 7 8 8 6 4 3 2 1 1 2 2 1 0 0 0 0 0 0 0 0 0
0 0 0 0 0 0 0 0 0 1 4 10 19 29 37 41 47 54 58 60 57 52 46 39 30 21 15 12 11 12 11 6 3 2 2 1 1 1 1 1 0 0 0 0 0 0 0 0 0
0 0 0 0 0 0 0 0 1 2 4 8 16 28 37 44 51 56 58 60 59 54 48 42 33 24 18 15 14 15 14 9 4 2 2 2 1 2 2 2 1 0 0 0 0 0 0 0 0
0 0 0 0 0 0 0 0 1 2 3 7 17 28 38 46 54 57 57 58 58 55 48 42 35 28 23 17 14 15 15 12 7 4 3 3 2 1 2 2 1 0 0 0 0 0 0 0 0
0 0 0 0 0 0 0 0 0 1 4 8 17 28 38 48 53 54 54 53 54 53 47 41 36 32 27 21 17 15 14 13 11 7 5 3 2 1 1 1 0 0 0 0 1 1 0 0 0
0 0 0 0 0 0 0 0 0 1 4 10 17 26 36 45 49 48 47 49 51 50 46 41 38 33 27 23 19 15 12 11 10 7 5 3 1 0 0 0 0 0 0 1 2 2 1 0 0
0 0 0 0 0 0 0 0 0 2 6 12 18 24 32 37 40 41 43 45 48 49 46 43 40 34 27 23 19 15 11 8 6 6 4 2 1 0 0 0 0 0 1 2 3 3 2 1 0
0 0 0 0 0 0 0 0 1 4 8 14 21 26 28 30 33 36 38 40 42 44 44 43 41 36 30 25 20 15 10 7 6 6 5 3 1 1 1 1 1 1 2 3 4 4 3 2 1
0 0 0 0 0 0 0 0 2 5 8 14 21 26 26 28 32 33 33 34 35 35 37 40 40 37 34 28 22 16 11 9 9 9 8 5 4 4 5 4 4 4 4 4 5 5 4 3 3
0 0 0 0 0 0 0 0 2 6 8 13 19 24 26 30 33 33 32 30 30 30 33 38 39 37 35 31 23 16 13 12 13 12 10 7 6 7 8 7 6 5 5 6 6 6 4 3 3
0 0 0 0 0 0 0 1 3 7 10 13 19 23 26 30 33 34 32 30 29 31 33 36 37 36 36 32 24 16 13 13 15 14 10 8 8 9 9 8 6 5 6 6 6 6 5 4 3

GEFSSGP_con_probscp_186.txt.gz
Probability
8 4 1 0 0 0 0 0 0 0 0 0 0 1 1 1 0 0 0 0 0 0 0 0 0 0 0 0 0 0 0 0 0 0 0 0 0 0 0 0 1 0 0 0 0 0 0 0 0
4 2 0 0 0 0 0 0 0 0 0 0 0 0 0 0 0 0 0 0 0 0 0 0 0 0 0 0 0 0 0 0 0 0 0 0 0 0 0 0 1 0 0 0 0 0 0 0 0
1 0 1 1 1 0 0 0 0 0 0 0 0 0 0 0 1 0 0 0 0 0 0 0 1 2 1 1 0 0 0 0 0 0 0 0 0 0 0 0 0 0 0 0 0 0 0 0 0
0 0 1 1 1 0 0 0 0 0 0 1 1 1 0 1 1 0 0 1 1 1 0 1 2 3 3 2 1 0 0 0 0 0 0 0 0 0 0 0 0 0 0 0 0 0 0 0 0
0 0 1 1 0 0 0 0 0 0 0 1 2 1 0 1 1 1 1 2 2 1 0 1 3 3 3 2 1 0 1 0 0 0 0 0 0 0 0 0 0 0 0 0 0 0 0 0 0
0 0 0 0 0 0 0 0 0 0 1 2 2 1 0 0 1 3 3 3 3 2 1 1 3 3 1 1 0 1 1 0 0 0 0 0 0 0 0 0 0 0 0 0 0 0 0 0 0
0 0 0 0 0 0 0 0 0 0 1 3 3 1 0 0 1 2 3 3 3 3 1 1 2 1 0 0 0 1 0 0 0 0 0 0 0 0 0 0 0 0 0 0 0 0 0 0 0
0 0 0 0 0 0 0 0 0 0 2 3 3 1 1 1 1 1 2 3 4 4 3 2 1 0 0 0 0 0 0 0 0 0 0 0 0 0 0 0 0 0 0 0 0 0 0 0 0
0 0 0 0 0 0 0 0 0 1 3 3 2 2 4 5 5 4 4 4 6 5 4 1 0 0 0 0 0 0 0 0 0 0 0 0 0 0 0 0 0 0 0 0 0 0 0 0 0
0 0 0 0 0 0 0 0 0 1 3 3 3 4 9 11 9 7 6 6 7 7 4 1 0 0 0 0 0 0 0 0 0 0 0 0 0 0 0 0 0 0 0 0 0 0 0 0 0
0 0 0 0 0 0 0 0 0 1 2 3 4 8 14 15 10 6 5 6 7 6 4 1 0 0 0 0 0 0 0 0 0 0 0 0 0 0 0 0 0 0 0 0 0 0 0 0 0
0 0 0 0 0 0 0 0 0 0 1 2 5 11 16 15 9 3 3 5 6 6 4 1 0 0 0 0 0 0 0 0 0 0 0 0 0 0 0 0 0 0 0 0 0 0 0 0 0
0 0 0 0 0 0 0 1 1 1 1 1 5 11 14 12 6 2 3 5 6 5 3 1 0 0 0 0 0 0 0 0 0 0 0 0 0 0 0 0 0 0 0 0 0 0 0 0 0
0 0 0 0 0 0 0 1 2 2 2 2 4 8 10 8 4 3 5 8 8 4 1 0 0 0 0 0 0 0 0 0 0 0 0 0 0 0 0 0 0 0 0 0 0 0 0 0 0
0 0 0 0 0 0 1 2 3 3 3 2 2 4 6 6 4 5 8 10 9 4 1 0 0 0 0 0 0 0 0 0 0 0 0 0 0 0 0 0 0 0 0 0 0 0 0 0 0
0 0 0 0 0 0 1 2 3 3 3 2 2 3 4 4 4 5 8 10 9 6 3 2 1 0 0 0 0 0 1 1 0 0 0 0 0 0 0 0 0 0 0 0 0 0 0 0 0
0 0 0 0 0 0 0 1 1 3 3 2 1 2 3 3 2 4 8 10 10 8 6 4 2 1 0 1 1 1 2 2 1 1 1 1 1 0 0 0 0 0 0 0 0 0 0 0 0
0 0 0 0 0 0 0 0 1 2 2 2 1 1 2 1 1 4 9 13 13 12 9 6 3 2 1 2 3 4 4 3 2 2 1 1 0 0 0 0 0 0 0 0 0 0 0 0 0
0 0 0 0 0 0 0 0 0 1 1 1 1 1 1 1 2 5 11 17 17 14 11 8 4 1 1 3 5 5 4 2 1 1 1 0 0 0 0 0 0 0 0 0 0 0 0 0 0
0 0 0 0 0 0 0 0 0 0 0 0 1 1 1 2 5 8 13 19 20 16 13 10 6 3 2 3 3 3 2 1 0 0 0 0 0 0 0 0 0 0 0 0 0 0 0 0 0
0 0 0 0 0 0 0 0 0 0 0 0 1 1 2 4 6 9 13 18 20 18 15 12 9 5 4 3 3 3 2 1 0 0 0 0 0 0 0 0 0 0 0 0 0 0 0 0 0
0 0 0 0 0 0 0 0 0 0 0 0 0 1 2 5 8 9 11 16 20 19 16 13 10 8 6 5 6 6 4 2 1 0 0 0 0 0 0 0 0 0 0 0 0 0 0 0 0
0 0 0 0 0 0 0 0 0 0 0 0 0 0 2 5 8 8 9 14 18 17 15 14 12 9 7 6 7 7 6 4 1 0 0 0 0 0 0 0 0 0 0 0 0 0 0 1 1
0 0 0 0 0 0 0 0 0 0 0 0 0 1 2 4 7 8 9 14 17 16 14 15 12 9 7 6 6 7 6 5 3 1 0 0 0 0 0 0 0 0 0 0 0 1 1 2 2
0 0 0 0 0 0 0 0 0 0 0 0 1 2 4 6 8 11 13 17 20 18 17 16 13 9 7 7 7 6 6 4 3 1 0 0 0 0 0 0 0 0 0 1 1 2 3 3 3
0 0 0 0 0 0 0 0 0 1 1 2 2 4 7 9 10 13 16 19 21 21 21 20 15 11 9 9 10 8 6 3 1 0 0 0 0 0 0 1 1 1 1 2 3 3 3 3 3
0 0 0 0 0 0 0 0 1 2 4 5 5 6 9 10 10 12 15 18 20 21 21 20 17 13 10 10 12 11 8 5 3 2 1 1 1 1 1 2 2 1 2 3 3 3 3 3 3
0 0 0 0 0 0 0 0 1 3 5 6 7 8 10 11 11 13 15 16 18 19 18 17 15 13 11 11 12 14 12 9 7 5 3 2 2 2 3 3 2 1 2 3 3 3 3 3 3
0 0 0 0 0 0 0 0 0 2 3 6 7 9 11 13 15 16 17 17 17 17 15 14 13 13 12 11 13 16 15 12 9 6 5 4 4 4 4 3 2 1 2 3 3 3 3 3 3
0 0 0 0 0 0 0 0 1 1 2 5 7 10 12 14 16 18 19 17 16 15 13 12 12 12 13 12 13 17 17 12 8 6 6 7 6 5 4 2 2 2 2 3 3 3 3 3 3

GEFSSGP_con_probscp_192.txt.gz
Probability
19 20 19 15 8 2 0 0 0 0 0 0 0 0 0 0 0 0 0 0 0 0 0 0 0 0 0 0 0 0 0 0 0 0 0 0 0 0 0 0 0 0 0 0 0 0 0 0 0
14 15 14 10 4 1 0 0 0 0 0 0 0 0 0 0 0 0 0 0 0 0 0 0 0 0 0 0 0 0 0 0 0 0 0 0 0 0 0 0 0 0 0 0 0 0 0 0 0
8 8 8 5 1 0 0 0 0 0 0 0 0 0 0 0 0 0 0 0 0 0 0 0 0 0 0 0 0 0 0 0 0 0 0 0 0 0 0 0 0 0 0 0 0 0 0 0 0
3 4 4 2 0 0 0 0 0 0 0 0 0 1 1 1 1 0 0 0 0 0 0 0 0 0 0 0 0 0 0 0 0 0 0 0 0 0 0 0 0 0 0 0 0 0 0 0 0
2 3 3 1 0 0 0 0 0 0 0 0 0 1 3 2 1 0 0 0 0 0 0 0 0 0 0 0 0 0 0 0 0 0 0 0 0 0 0 0 0 0 0 0 0 0 0 0 0
2 3 1 0 0 0 0 0 0 0 0 0 0 2 4 3 1 0 0 0 0 0 0 0 0 0 0 0 0 0 0 0 0 0 0 0 0 0 0 1 1 0 0 0 0 0 0 0 0
1 1 0 0 0 0 0 0 0 0 0 0 0 2 5 4 1 0 0 0 0 0 0 0 0 0 0 0 0 0 0 0 0 0 0 0 0 0 1 2 1 0 0 0 0 0 0 0 0
0 0 0 0 0 0 0 0 0 0 0 0 1 2 6 7 4 2 2 2 1 1 0 0 0 0 0 0 0 0 0 0 0 0 0 0 0 0 1 2 1 0 0 0 0 0 0 0 0
0 0 0 0 0 0 0 0 0 0 0 1 2 4 8 11 9 6 5 4 3 2 1 0 0 0 0 0 0 0 0 0 0 0 1 0 0 0 1 1 0 0 0 0 0 0 0 0 0
0 0 0 0 0 0 0 0 0 0 0 1 3 7 11 14 11 8 6 4 3 3 2 1 0 0 0 0 0 0 0 0 0 0 0 0 0 0 0 0 0 0 0 0 0 0 0 0 0
0 0 0 0 0 0 0 1 1 0 0 1 4 9 14 15 11 7 4 4 3 3 2 1 0 0 0 0 0 0 0 0 0 0 0 0 0 0 0 0 0 0 0 0 0 0 0 0 0
0 0 0 0 0 0 1 2 2 1 0 1 4 9 14 13 8 4 3 3 3 3 2 1 0 0 0 0 0 0 0 0 0 0 0 0 0 0 0 0 0 0 0 0 0 0 0 0 0
0 0 0 0 0 0 1 2 2 1 0 1 3 7 11 9 5 3 3 4 4 4 3 1 0 0 1 1 1 1 0 1 1 0 0 0 0 0 0 0 0 0 0 0 0 0 0 0 0
0 0 0 0 0 0 1 2 3 1 1 2 2 4 4 3 3 4 5 6 7 7 6 3 1 1 2 3 2 2 1 2 2 1 0 0 0 0 0 0 0 0 0 0 0 0 0 0 0
0 0 0 0 0 0 1 2 3 3 3 3 2 2 1 0 2 4 7 10 11 10 8 5 3 3 5 4 4 3 2 2 3 2 1 0 0 0 0 0 0 0 0 0 0 0 0 0 0
0 0 0 0 0 0 0 1 3 3 3 4 4 2 1 1 3 5 8 10 13 13 13 9 5 4 6 7 5 4 2 2 3 4 3 1 0 1 1 0 0 0 0 0 0 0 0 0 0
0 0 0 0 0 0 0 1 4 3 2 4 4 4 3 4 4 6 7 9 12 16 17 14 9 7 8 8 7 5 4 3 4 5 4 2 1 2 1 0 0 0 0 0 0 0 0 0 0
0 0 0 0 0 0 0 1 3 3 2 3 4 4 4 4 5 6 7 8 12 17 20 19 16 14 12 10 7 5 4 4 5 5 3 1 1 2 2 0 0 0 0 0 0 0 0 0 0
0 0 0 0 0 0 0 0 2 3 3 3 4 3 2 3 4 7 9 10 14 19 23 24 22 20 17 13 8 5 4 4 5 5 3 1 1 2 1 0 0 1 0 0 0 0 0 0 0
0 0 0 0 0 0 0 0 1 2 3 4 5 3 1 1 4 8 12 14 17 22 24 25 25 23 20 15 9 6 5 4 4 4 3 1 0 1 1 0 0 0 0 0 0 0 0 0 0
0 0 0 0 0 0 0 0 0 1 1 3 4 4 1 0 4 10 14 16 20 22 22 23 24 25 23 18 11 8 7 4 3 4 3 1 0 0 0 0 0 0 0 0 0 0 1 1 0
0 0 0 0 0 0 0 0 0 0 0 1 3 4 2 1 4 10 14 16 20 21 20 21 25 28 28 23 18 14 9 5 2 2 2 1 0 0 0 0 0 0 0 0 1 1 2 2 1
0 0 0 0 0 0 0 0 0 0 0 1 3 3 2 2 4 9 14 16 18 19 19 21 25 29 31 29 27 21 12 5 3 2 2 1 0 0 0 0 0 0 1 1 2 3 4 4 4
0 0 0 0 0 0 0 0 0 0 0 1 2 2 2 4 5 9 14 19 20 20 19 20 23 28 31 31 30 26 18 12 8 5 4 2 1 0 0 0 0 0 1 2 3 5 6 6 6
0 0 0 0 0 0 0 0 0 0 0 0 1 2 4 6 7 11 17 23 25 24 23 22 24 28 29 30 28 25 21 16 12 9 7 4 2 0 1 1 0 0 1 1 3 5 6 6 7
0 0 0 0 0 0 0 0 0 0 1 2 4 6 9 8 9 13 19 24 27 27 27 26 28 29 27 26 25 23 18 13 10 10 8 6 4 2 2 2 1 2 3 3 4 5 5 5 5
0 0 0 0 0 0 0 0 0 2 5 7 10 13 14 13 12 15 20 24 25 27 28 28 29 28 25 22 22 19 14 10 8 9 10 9 8 6 5 5 4 5 7 8 8 8 6 5 4
0 0 0 0 0 0 0 0 2 4 7 9 13 16 19 20 20 21 24 25 25 26 28 29 29 28 25 21 21 19 16 13 11 11 13 14 14 13 9 7 7 8 10 11 12 11 9 7 6
0 0 0 0 0 0 0 1 4 7 8 9 12 17 23 26 28 30 31 31 29 29 31 31 31 30 28 27 27 25 22 19 16 17 18 20 20 18 14 11 9 9 10 12 13 11 9 8 6
0 0 0 0 0 0 0 1 5 9 9 9 12 18 26 30 33 36 38 37 34 32 32 32 32 32 32 33 34 32 27 23 20 20 22 24 24 20 17 14 11 11 11 12 11 9 8 7 5

GEFSSGP_con_probscp_198.txt.gz
Probability
8 17 39 57 45 16 1 0 0 0 0 0 0 0 0 0 0 0 0 1 0 0 0 0 0 0 0 0 0 0 1 2 1 0 1 4 3 1 1 2 2 1 1 1 1 0 1 2 2
11 25 46 51 32 9 0 0 0 0 0 0 0 0 0 0 0 0 1 1 1 0 0 0 0 0 0 0 0 1 2 2 1 0 1 2 2 0 1 2 2 1 1 1 1 0 0 1 1
23 36 44 33 14 3 0 0 0 0 0 0 0 0 0 0 0 0 1 1 1 1 0 0 0 0 0 0 0 1 2 2 1 0 1 1 1 0 0 1 1 1 0 1 1 1 0 0 0
35 39 33 16 4 0 0 0 0 0 0 0 0 0 0 0 0 0 0 1 2 2 1 0 0 0 0 0 0 0 1 2 1 0 0 0 1 1 0 0 0 0 0 1 2 1 0 0 0
35 31 18 6 1 0 0 0 0 0 0 0 0 0 0 0 0 0 0 1 2 2 1 1 2 1 0 0 0 0 1 1 1 0 0 0 0 0 0 0 0 0 1 2 2 1 0 0 0
23 16 6 1 0 0 0 0 0 0 0 0 1 1 1 0 0 0 0 1 2 1 1 2 3 2 1 0 0 0 1 1 0 0 0 0 0 0 0 0 0 0 1 1 1 0 0 0 0
13 8 2 0 0 0 0 0 0 0 0 0 1 1 2 1 0 0 0 1 2 1 2 3 3 3 2 1 1 1 1 0 0 0 0 0 0 0 0 0 0 0 0 0 0 0 0 0 0
7 4 1 0 0 0 0 0 0 0 0 0 0 2 3 3 1 1 1 2 2 1 1 3 4 4 3 3 3 2 1 0 0 0 0 0 0 0 0 0 0 0 0 0 0 0 0 0 0
2 2 1 0 0 0 0 0 0 0 0 0 1 2 3 3 2 2 3 3 4 2 2 4 4 4 4 3 4 4 3 1 0 0 0 0 0 0 0 0 0 0 0 0 0 0 0 0 0
0 0 0 0 0 0 0 0 0 0 0 2 4 4 3 4 4 4 5 6 5 3 2 2 3 3 3 3 3 5 3 1 1 1 1 0 0 0 0 0 1 0 0 0 0 0 0 0 0
0 0 0 0 0 0 0 0 0 0 1 4 7 6 4 5 6 7 7 7 6 4 2 1 2 3 4 3 3 4 3 2 2 2 1 0 0 0 0 0 1 1 0 0 0 0 0 0 0
0 0 0 0 0 0 0 0 0 0 1 4 7 5 3 4 6 8 8 8 9 6 4 3 4 6 7 6 5 5 4 3 3 3 1 1 1 0 0 0 0 1 0 0 0 0 0 0 0
0 0 0 0 0 0 0 0 0 0 1 3 6 4 2 2 5 8 9 10 13 12 9 8 9 10 10 9 9 7 5 4 4 4 2 1 1 0 0 0 0 0 0 0 1 1 0 0 0
0 0 0 0 0 0 1 0 0 0 1 4 5 5 3 2 6 11 13 16 20 20 18 15 12 11 11 10 10 9 6 5 5 4 3 2 1 0 0 1 1 0 0 1 2 2 1 1 1
0 0 0 0 0 0 1 1 0 1 2 4 5 6 6 6 10 17 20 24 29 29 27 21 14 12 11 8 8 8 6 6 6 5 4 4 2 1 1 1 1 1 1 3 4 3 1 1 2
0 0 0 0 1 0 1 1 1 1 3 4 6 7 10 12 16 22 26 31 36 37 34 25 18 18 15 10 9 8 7 8 9 7 6 6 3 2 2 2 2 3 4 4 3 2 1 1 1
0 0 0 0 0 0 1 1 1 1 2 5 7 10 15 18 21 25 30 34 41 44 40 31 25 25 23 17 13 10 9 12 12 10 9 7 4 3 3 3 5 7 7 4 2 1 1 1 1
0 1 1 0 0 0 0 1 1 0 3 8 12 15 19 22 25 27 30 35 44 49 46 37 31 28 26 23 19 15 14 16 15 14 13 10 6 4 4 4 6 8 8 6 4 3 3 2 2
1 1 2 1 0 0 0 1 2 2 4 11 18 20 21 24 28 31 32 35 45 52 51 44 36 30 28 27 24 21 21 19 18 18 15 11 9 7 5 4 5 7 8 6 5 5 4 3 2
0 1 1 1 0 0 0 1 2 4 4 10 18 20 20 24 31 37 38 40 49 56 56 51 43 37 33 30 27 25 23 20 19 20 17 13 11 8 6 4 4 5 6 7 7 7 6 4 2
0 0 0 0 0 0 0 0 2 4 5 8 14 18 18 21 31 41 43 45 52 59 59 54 49 45 39 34 29 28 26 23 23 24 22 16 11 9 7 4 3 2 4 7 8 8 7 6 4
0 0 0 0 0 0 0 0 1 4 5 7 11 16 18 20 29 41 45 46 51 56 57 56 55 51 44 37 31 31 31 30 29 29 26 20 13 10 7 4 3 3 5 7 8 8 7 6 4
0 0 0 0 0 0 0 0 0 2 5 6 8 13 16 19 29 41 46 47 49 52 56 59 61 56 47 39 35 34 34 34 34 34 31 26 21 15 10 8 8 7 6 8 9 8 7 6 5
0 0 0 0 0 0 0 0 0 1 3 5 7 10 14 19 28 42 50 52 52 53 59 65 66 62 52 44 39 36 34 33 33 35 34 31 28 25 19 16 16 14 11 11 12 11 10 9 8
0 0 0 0 0 0 0 0 1 1 2 4 7 10 14 19 26 39 53 58 58 58 63 69 70 65 56 49 43 39 35 33 31 32 33 30 29 31 29 25 23 21 18 17 16 16 14 12 11
0 0 0 0 0 0 0 0 1 1 2 4 7 11 16 20 24 34 49 60 63 62 65 71 72 66 56 52 49 45 41 34 30 31 32 30 29 32 36 33 28 26 23 21 21 19 16 15 15
0 0 0 0 0 0 0 2 3 4 5 5 8 13 20 24 27 33 44 56 62 64 68 74 76 70 60 56 55 51 45 36 29 30 31 32 33 37 42 39 32 29 26 24 24 20 17 17 18
0 0 0 0 0 0 1 4 7 9 8 6 8 16 24 29 33 36 43 51 58 62 70 78 81 78 69 62 56 51 47 39 31 28 30 33 36 42 47 43 35 30 28 26 25 22 18 17 18
0 0 0 0 0 0 1 5 10 14 12 9 13 20 26 31 36 40 46 54 58 62 70 77 81 80 75 68 59 54 53 50 42 36 35 37 41 45 47 45 39 33 28 26 27 25 21 17 17
0 0 0 0 0 0 1 5 11 15 17 16 18 24 27 32 38 42 52 60 63 64 69 74 78 78 75 71 64 60 61 60 54 46 42 43 45 46 46 44 43 37 28 26 28 26 21 17 15

GEFSSGP_con_probscp_204.txt.gz
Probability
10 5 1 0 0 0 0 0 0 0 0 0 0 0 0 0 0 0 0 0 0 0 0 0 0 0 0 0 0 1 2 3 4 2 1 1 1 1 0 0 0 0 0 0 0 0 0 1 1
5 3 1 0 0 0 0 0 0 0 0 0 0 0 0 0 0 0 0 0 0 0 0 0 0 0 0 0 0 0 1 2 2 1 0 0 0 0 0 0 0 0 0 0 0 0 0 0 1
2 2 1 1 0 0 0 0 0 0 0 0 0 0 0 1 1 1 0 0 0 0 0 0 0 0 0 0 0 0 0 1 1 0 0 0 0 0 1 1 0 0 0 0 0 0 0 0 0
2 2 2 1 1 0 0 0 0 0 0 0 0 0 0 1 3 2 1 1 1 1 0 1 1 1 0 0 0 0 0 0 0 1 1 1 0 1 2 2 1 1 1 1 0 0 0 0 0
3 3 2 1 1 0 0 0 1 1 0 0 0 0 1 3 5 4 2 2 2 1 0 1 2 1 0 0 0 0 0 0 0 1 2 1 0 2 3 3 2 2 1 1 0 0 0 0 0
3 3 1 1 0 1 1 1 1 0 0 0 0 0 1 4 7 6 4 3 2 1 0 1 1 1 0 0 0 0 0 0 1 2 3 2 1 3 4 3 2 2 1 1 0 0 0 0 0
3 2 1 0 0 1 2 2 1 1 1 0 0 0 1 5 7 6 4 2 1 1 0 0 0 0 0 1 0 0 0 0 1 2 4 4 3 3 2 1 1 1 1 1 0 0 0 0 0
2 1 0 0 0 1 2 2 2 2 2 1 0 0 2 6 7 6 4 2 0 0 0 0 0 0 0 1 1 0 0 0 0 2 5 5 3 1 1 0 0 0 0 0 0 0 0 0 0
1 0 0 0 0 0 1 3 4 4 3 1 0 1 3 8 10 9 6 3 1 0 0 0 0 0 0 1 1 1 0 0 0 2 4 4 2 0 0 0 0 0 0 0 0 0 0 0 0
0 0 0 0 0 0 2 5 6 5 3 1 0 1 4 8 12 12 9 6 3 1 0 0 0 0 0 1 2 2 1 0 0 1 1 1 0 0 0 0 0 0 0 0 0 0 0 0 0
0 0 0 0 0 0 2 5 7 5 2 1 1 1 3 6 11 13 10 8 6 3 2 1 1 1 0 1 3 3 2 1 0 0 0 0 0 0 0 0 0 0 0 0 0 0 0 0 0
0 0 0 0 0 0 1 3 5 5 3 3 2 2 2 5 8 10 9 9 9 7 4 2 2 2 2 2 3 3 3 2 1 0 0 0 0 0 0 0 0 0 0 0 0 0 0 0 0
0 0 0 0 0 0 1 2 4 4 3 4 4 3 3 4 6 8 10 11 11 9 5 4 4 3 3 3 2 2 3 3 2 1 1 0 0 0 0 0 0 0 0 0 0 0 0 0 0
0 0 0 0 0 0 1 2 3 4 4 4 4 3 4 5 6 9 11 12 11 9 8 7 7 5 4 3 1 1 2 2 1 0 0 0 0 0 0 0 0 0 0 0 0 0 0 0 0
0 0 0 0 0 0 1 3 4 5 4 3 2 3 5 7 8 10 12 13 12 10 10 12 10 6 4 3 1 1 1 1 0 0 0 0 0 0 0 0 0 0 0 0 0 0 0 0 0
0 0 0 0 0 0 1 3 5 5 3 2 1 3 6 8 8 9 11 15 15 13 12 13 11 8 5 4 3 1 1 0 0 0 0 0 0 0 0 0 0 0 0 0 0 0 0 0 0
0 0 0 0 0 0 1 3 5 4 2 1 2 5 8 8 7 8 12 17 19 16 13 12 11 9 8 7 4 2 1 1 0 0 0 0 0 0 0 0 0 0 0 0 0 0 0 0 0
0 0 0 0 0 1 2 4 5 3 1 0 2 6 9 9 8 10 13 17 19 17 13 11 11 10 9 8 5 2 2 2 1 0 0 0 0 0 0 0 0 0 0 0 0 0 0 0 0
0 0 0 0 0 1 2 4 4 2 0 0 2 6 9 9 10 12 15 17 18 17 14 11 11 11 10 10 7 4 2 2 1 0 0 0 0 0 0 0 0 0 0 0 0 0 0 0 0
0 0 0 0 0 1 2 3 3 1 1 2 3 7 9 10 12 14 19 22 21 19 17 15 14 13 12 11 9 5 1 1 1 0 0 0 0 0 0 0 0 0 0 0 0 0 0 0 0
0 0 0 0 0 1 2 3 2 1 2 3 5 8 11 12 13 17 23 29 29 25 23 22 21 17 12 9 7 5 2 1 1 0 0 0 1 1 0 0 0 0 0 0 0 0 0 0 0
0 0 0 0 0 0 1 2 1 1 2 3 4 9 14 15 15 19 26 33 35 32 30 28 25 19 12 8 7 6 4 2 1 0 0 0 1 1 0 0 0 0 0 0 0 0 0 0 0
0 0 0 0 0 0 0 0 1 3 3 3 4 9 15 18 19 23 27 32 37 38 34 30 26 20 15 11 8 6 3 2 1 0 0 0 0 0 0 0 1 2 1 0 0 0 0 0 0
0 0 0 0 0 0 0 0 1 3 3 3 5 10 15 19 23 27 27 30 37 40 37 32 28 25 21 18 13 8 5 3 1 1 0 0 0 0 0 1 2 3 2 1 0 0 0 0 0
0 0 0 0 0 0 0 0 1 3 3 5 10 14 15 19 25 30 30 32 38 41 40 37 35 32 29 25 20 14 9 7 5 3 3 2 2 1 0 1 3 3 2 1 0 1 1 1 1
0 0 0 0 0 0 0 1 2 3 5 8 15 21 21 23 28 32 33 35 40 44 44 43 42 39 35 31 26 20 15 10 8 7 7 5 4 2 2 2 3 4 4 3 3 4 3 2 2
0 0 0 0 0 0 1 2 3 4 7 12 22 28 27 26 31 34 35 37 42 48 49 49 48 45 40 36 30 24 20 15 12 10 8 7 5 4 5 5 5 7 8 8 7 6 4 3 3
0 0 0 0 0 0 1 2 3 4 8 16 26 32 30 29 33 36 37 39 44 50 53 53 52 49 45 41 34 27 24 22 18 14 11 9 6 7 9 9 9 10 12 11 9 6 4 3 2
0 0 0 0 0 0 1 2 4 6 10 18 28 33 33 32 34 36 40 43 46 50 54 53 52 52 50 45 38 31 27 26 23 21 18 14 11 13 14 14 13 13 13 12 9 6 4 3 2
0 0 0 0 0 0 1 2 4 7 12 20 28 32 33 34 35 37 41 46 48 50 53 52 52 54 53 47 40 34 29 26 25 24 22 18 15 17 19 19 17 15 14 13 9 6 5 3 3

GEFSSGP_con_probscp_210.txt.gz
Probability
13 6 1 0 0 0 0 0 0 0 0 0 0 0 0 0 0 0 0 0 0 0 0 0 0 0 1 0 0 0 1 2 3 3 4 3 1 3 4 2 0 0 1 3 4 2 1 1 0
6 3 0 0 0 0 0 0 0 0 0 0 0 0 0 0 0 0 0 0 0 0 0 0 0 1 1 1 0 0 1 2 2 2 2 2 1 2 3 2 1 0 0 1 1 1 1 1 1
1 0 0 0 0 0 0 0 0 0 0 0 0 0 0 0 0 0 0 0 0 0 0 0 0 1 2 1 0 0 1 2 2 1 1 1 0 1 2 2 1 0 0 0 0 0 1 2 2
0 0 0 0 0 0 0 0 0 0 0 0 0 0 0 0 0 0 0 0 1 0 0 0 1 1 2 2 0 0 1 1 1 0 0 0 0 1 2 2 1 1 0 0 0 0 0 1 1
0 0 0 0 0 0 0 0 0 0 0 0 0 0 0 0 0 0 0 0 0 0 0 1 2 2 2 1 0 1 1 1 0 0 0 0 0 0 1 1 1 1 0 0 0 0 0 0 0
0 0 0 0 0 0 0 0 1 1 0 0 0 0 0 1 1 1 0 0 0 0 0 1 2 3 2 1 0 1 1 1 0 0 0 0 0 1 1 1 1 0 0 0 0 0 0 0 0
0 0 0 0 0 0 0 1 2 2 1 0 0 0 1 2 2 1 0 0 0 0 0 0 1 2 2 1 0 0 0 0 0 0 0 1 1 2 3 3 1 0 0 0 0 0 0 0 0
0 0 0 0 0 0 0 2 3 2 1 0 0 0 1 2 2 1 1 0 0 0 0 0 0 1 1 1 1 0 0 0 0 0 1 2 2 2 3 3 2 0 0 0 0 0 0 0 0
0 0 0 0 0 0 0 1 3 2 1 0 0 0 1 2 3 2 1 0 0 0 0 0 0 0 0 1 1 1 0 0 0 1 2 2 1 1 1 2 2 1 0 0 0 0 0 0 0
0 0 0 0 0 0 0 1 3 2 1 0 1 1 3 3 3 3 1 0 0 0 0 0 0 0 0 1 1 1 0 0 0 0 1 1 0 0 0 1 1 1 0 0 0 0 0 0 0
0 0 0 0 0 0 1 2 2 2 1 1 2 4 5 4 5 4 2 1 0 0 0 0 0 0 0 0 1 1 0 0 0 0 0 0 0 0 0 0 0 0 0 0 0 0 0 0 0
0 0 0 0 0 0 1 2 1 1 0 1 4 5 5 5 5 4 3 1 0 0 0 0 0 0 0 0 1 1 1 0 0 0 0 0 0 0 0 0 0 0 0 0 0 0 0 0 0
0 0 0 0 0 0 1 2 1 0 1 3 4 4 3 3 2 2 1 1 0 0 0 0 0 0 0 0 1 2 1 0 0 0 0 0 0 0 0 0 0 0 0 0 0 0 0 0 0
0 0 0 0 0 0 1 1 0 0 1 4 4 2 1 1 0 0 1 1 0 0 0 0 0 0 0 0 0 1 1 0 0 0 0 0 0 0 0 0 0 0 0 0 0 0 0 0 0
0 0 0 0 0 0 0 1 0 0 1 2 2 1 0 0 0 1 2 2 1 0 1 2 1 0 0 0 0 0 0 0 0 0 0 0 0 0 0 0 0 0 0 0 0 0 0 0 0
0 0 0 0 0 0 0 0 0 0 0 1 1 0 0 0 0 1 2 3 2 1 2 3 2 1 0 0 0 0 0 0 0 0 0 0 0 0 0 0 0 0 0 0 0 0 0 0 0
0 0 0 0 0 0 0 0 0 0 0 0 0 0 0 0 0 0 2 4 4 4 3 3 3 2 0 0 0 0 0 0 0 0 0 0 0 0 0 0 0 0 0 0 0 0 0 0 0
0 0 0 0 0 0 0 0 0 0 0 0 0 1 0 0 0 0 1 4 5 5 3 2 2 1 0 0 1 0 0 0 0 0 0 0 0 0 0 0 0 0 0 0 0 0 0 0 0
0 0 0 0 0 0 0 0 0 0 0 0 0 1 1 1 0 0 1 3 4 3 1 1 1 0 0 0 0 0 0 0 0 0 0 0 0 0 0 0 0 0 0 0 0 0 0 0 0
0 0 0 0 0 0 0 0 0 0 0 0 0 1 2 2 1 0 1 3 3 1 0 0 0 0 0 1 1 0 0 0 0 0 0 0 0 0 0 0 1 1 0 0 0 0 0 0 0
0 0 0 0 0 0 0 0 0 0 0 0 0 1 3 4 3 2 2 2 2 1 0 0 1 1 2 3 3 2 1 1 2 1 1 0 0 0 0 1 2 2 1 0 0 0 0 0 0
0 0 0 0 0 0 0 0 0 0 0 0 0 1 3 5 6 5 3 2 2 1 1 2 4 5 5 5 5 5 4 3 3 3 2 1 1 0 1 1 3 3 1 1 0 0 0 0 0
0 0 0 0 0 0 0 0 0 0 0 0 0 1 3 5 6 6 4 2 2 3 3 5 8 8 7 7 7 7 6 4 3 3 3 3 2 2 2 3 4 4 3 2 1 0 0 0 0
0 0 0 0 0 0 0 0 0 0 0 0 2 4 5 7 7 7 6 5 5 7 7 8 9 9 8 8 8 7 6 5 4 3 3 3 3 3 4 5 6 6 5 3 2 1 0 0 0
0 0 0 0 0 0 0 0 0 0 0 1 3 5 6 8 10 11 12 12 13 14 13 13 12 11 11 10 9 8 7 6 4 3 2 2 3 4 6 8 9 9 7 5 2 1 0 0 1
0 0 0 0 0 0 0 0 0 0 0 1 4 6 8 10 14 17 18 20 22 23 23 22 19 18 18 15 10 9 9 7 5 2 1 1 3 6 8 10 10 10 8 5 2 0 0 0 1
0 0 0 0 0 0 0 0 0 0 0 1 5 9 11 13 16 19 22 26 30 32 32 32 29 26 24 21 15 12 13 12 8 5 4 3 4 7 9 11 11 10 8 5 2 1 1 1 2
0 0 0 0 0 0 0 0 0 1 0 1 5 11 12 13 17 21 24 29 33 35 37 38 34 30 28 26 22 18 18 19 16 12 10 8 9 10 11 13 12 11 8 7 5 3 3 4 5
0 0 0 0 0 0 0 0 0 1 1 1 5 10 12 14 18 23 25 28 31 34 37 38 34 31 30 30 28 24 24 25 24 20 17 15 15 15 14 15 14 12 9 8 6 5 5 7 7
0 0 0 0 0 0 0 0 1 1 1 2 5 9 13 16 20 23 24 27 31 34 37 37 33 32 33 33 30 27 27 29 29 25 21 19 18 17 15 16 15 12 10 8 6 5 7 8 7

GEFSSGP_con_probscp_216.txt.gz
Probability
16 16 16 14 7 1 0 0 0 0 0 0 0 0 0 0 0 0 0 0 0 0 0 0 0 0 0 0 0 1 1 1 0 0 1 2 2 1 1 1 1 0 0 1 2 2 1 0 0
14 16 17 13 5 1 0 0 0 0 0 0 0 0 0 0 0 0 0 0 0 0 0 0 0 0 0 0 0 0 2 2 1 0 0 1 1 1 0 0 0 0 0 0 1 1 0 0 0
14 15 15 9 3 0 0 0 0 0 0 0 0 0 0 0 0 0 0 0 0 0 0 0 0 0 0 0 0 1 3 3 2 0 0 0 0 0 0 0 0 1 0 0 0 0 0 0 0
11 12 10 5 1 0 0 0 0 0 0 0 0 0 1 1 0 0 0 0 0 0 0 0 0 0 0 0 0 1 2 3 2 0 0 0 0 0 0 0 0 1 1 0 0 0 0 0 0
5 6 6 3 1 0 0 0 0 0 0 0 0 1 2 3 2 1 0 0 0 0 0 0 0 0 0 0 1 1 1 1 1 0 0 0 0 0 0 0 0 0 1 0 0 0 0 0 0
1 2 2 1 0 0 0 0 0 0 1 1 0 1 4 5 4 2 0 0 0 0 0 0 1 1 1 0 1 2 1 0 0 0 0 0 0 0 0 0 0 0 0 0 0 0 0 0 0
0 1 1 0 0 0 0 0 0 1 2 2 1 1 4 6 4 2 1 0 0 0 0 0 1 1 1 0 1 2 2 1 0 0 1 1 1 0 0 1 0 0 0 0 0 0 0 0 1
0 0 0 0 0 0 0 0 0 1 2 2 1 1 4 5 4 3 2 1 0 0 0 0 0 0 0 0 1 2 2 1 0 0 1 1 1 0 0 0 0 0 0 0 0 0 0 0 1
0 0 0 0 0 0 0 1 1 2 3 3 2 2 4 5 4 3 3 2 1 0 0 0 0 0 0 1 2 2 2 1 1 1 1 2 2 1 0 0 0 0 0 0 0 0 0 0 1
0 0 0 0 0 0 0 1 2 2 3 4 3 4 6 7 5 4 3 3 2 0 0 0 0 0 0 1 2 3 3 3 3 2 3 3 3 2 1 1 1 0 0 0 0 0 0 0 0
0 0 0 0 0 0 0 0 1 1 2 3 4 6 8 7 6 4 3 3 1 0 0 0 0 0 0 1 2 3 4 4 3 3 2 3 3 3 3 2 1 0 0 0 0 0 0 0 0
0 0 0 0 0 0 0 0 0 0 1 2 3 5 7 6 5 4 4 3 1 0 0 0 1 1 1 1 1 2 3 3 2 1 1 1 2 3 3 3 2 0 0 0 0 0 0 0 0
0 0 0 0 0 0 0 0 0 0 0 1 2 3 4 3 4 5 5 3 1 0 0 1 2 3 3 3 2 1 1 1 1 0 0 0 1 2 2 2 1 0 0 0 0 0 0 0 0
0 0 0 0 0 0 0 0 0 0 0 0 1 1 1 1 2 4 5 4 1 0 1 2 3 4 5 5 3 1 0 1 0 0 0 0 0 1 1 1 1 0 0 0 0 0 0 0 0
0 0 0 0 0 0 0 0 0 0 0 0 0 0 0 0 0 2 5 5 3 1 1 2 3 3 4 4 3 1 0 0 0 0 0 0 0 0 0 0 1 0 0 0 0 0 0 0 0
0 0 0 0 0 0 0 0 0 0 0 0 0 0 1 1 0 1 3 5 4 2 1 2 2 3 3 3 2 1 0 0 0 0 0 0 0 0 0 0 1 1 0 0 0 0 0 0 0
0 0 0 0 0 0 0 0 0 0 0 0 0 0 1 2 1 1 3 4 5 4 3 3 3 3 3 3 2 1 1 1 1 0 0 0 0 0 0 0 1 2 1 0 0 0 0 0 0
0 0 0 0 0 0 0 0 0 0 0 0 1 1 1 2 1 1 2 4 5 5 4 3 3 4 3 3 2 1 0 0 0 0 0 0 0 0 0 1 2 3 2 1 1 1 0 0 0
0 0 0 0 0 0 0 0 0 1 0 1 2 2 1 1 1 2 3 3 4 6 5 4 4 5 5 4 2 0 0 0 0 0 0 0 1 1 2 3 3 4 3 2 2 2 1 0 0
0 0 0 0 0 0 0 0 0 0 0 1 2 3 3 3 3 4 4 4 5 6 7 6 6 6 7 6 2 1 1 0 0 0 0 1 2 4 5 5 5 5 4 2 3 3 1 0 0
0 0 0 0 0 0 0 0 0 0 0 0 2 3 4 4 6 7 7 6 6 6 7 7 8 10 11 8 3 2 3 2 1 1 1 1 3 5 6 6 7 7 6 4 4 4 3 1 1
0 0 0 0 0 0 0 0 0 1 0 0 2 4 5 6 7 10 9 6 6 7 7 7 9 12 13 10 5 3 3 3 3 3 3 3 4 6 7 7 8 8 9 7 6 5 4 3 2
0 0 0 0 0 0 0 0 0 0 0 0 1 4 6 7 9 11 8 5 5 7 9 9 11 14 15 12 10 7 5 4 4 4 3 3 5 7 9 9 10 11 11 10 9 8 7 5 4
1 1 1 0 0 0 0 0 0 0 0 0 2 4 6 8 11 13 11 8 8 11 13 15 18 20 18 15 13 11 9 7 6 5 4 4 5 8 10 11 12 13 13 13 12 11 10 8 7
2 2 2 1 0 0 0 0 1 1 1 1 4 6 7 8 12 16 18 16 15 18 20 24 27 28 23 18 15 13 13 11 9 8 6 6 6 7 10 12 14 15 15 16 16 15 13 11 12
2 2 1 1 0 0 0 1 1 1 2 5 9 11 10 11 13 17 21 20 19 21 25 29 32 31 27 23 21 18 16 14 13 12 11 9 8 8 11 15 17 18 18 18 20 19 16 13 13
1 0 0 0 0 0 0 1 1 2 4 9 13 15 15 14 14 16 19 20 19 22 26 30 31 31 29 28 26 24 21 19 18 18 18 16 14 13 15 18 20 21 21 20 22 22 18 14 12
0 0 0 1 1 1 0 0 1 4 8 12 14 16 17 17 15 15 18 22 23 25 29 31 33 32 31 29 26 25 24 23 22 23 25 26 26 24 21 20 21 23 24 24 23 21 18 15 14
0 0 0 2 2 1 0 1 3 5 9 12 14 15 16 18 17 17 21 26 31 33 35 37 37 34 31 28 27 28 26 25 27 30 32 34 35 34 29 24 23 25 27 28 26 22 20 18 15
0 0 0 1 2 1 0 1 4 7 8 12 14 13 15 18 19 21 25 30 35 39 42 42 39 34 31 30 31 33 30 28 32 36 37 39 39 37 32 28 25 25 28 30 29 25 22 19 16

GEFSSGP_con_probscp_222.txt.gz
Probability
9 15 29 47 46 22 4 0 0 0 0 0 0 0 0 0 0 0 1 2 2 1 0 1 3 4 4 4 2 1 1 1 0 0 0 1 2 4 3 2 2 3 3 2 0 1 2 3 3
12 22 39 46 34 13 2 0 0 0 0 0 0 0 0 0 0 0 1 2 2 1 1 2 4 3 3 2 1 0 0 0 0 0 0 0 1 2 2 2 2 2 3 2 1 1 2 3 3
21 34 45 38 19 5 0 0 0 0 0 0 0 0 0 0 0 0 1 2 1 1 2 4 4 3 1 1 0 0 0 0 0 0 0 0 0 1 1 1 1 2 3 3 1 1 2 3 3
34 42 40 25 10 2 0 0 0 0 0 0 1 1 1 0 0 0 0 1 2 2 4 6 5 3 1 0 0 0 1 1 0 0 0 0 0 0 0 0 1 1 2 2 1 1 2 3 3
41 38 29 14 4 1 0 0 0 0 0 0 1 2 2 1 1 0 0 1 2 3 4 6 5 3 1 0 0 1 2 2 1 0 1 1 0 0 0 1 1 1 1 1 0 1 2 2 2
34 27 16 6 1 0 0 0 0 0 0 0 2 4 4 3 1 0 0 1 2 3 4 4 4 3 1 1 1 1 3 3 1 1 2 1 0 0 1 2 2 1 0 0 1 1 1 1 1
22 15 7 2 0 0 0 0 0 0 0 0 3 7 9 5 1 0 0 1 3 3 3 2 2 2 1 2 2 2 2 3 3 2 2 1 0 0 1 2 2 1 0 0 1 1 1 0 1
10 6 2 0 0 0 0 0 0 0 0 0 3 9 11 7 2 0 1 2 3 3 3 2 1 1 1 2 2 1 1 2 3 3 2 1 0 0 1 2 2 1 0 0 0 0 0 0 1
2 1 0 0 0 0 0 0 0 0 1 2 4 8 11 8 4 2 2 3 3 3 3 2 1 1 2 3 3 2 1 1 2 3 3 2 1 0 0 2 2 1 0 0 0 0 0 0 0
0 0 0 0 0 0 0 0 0 0 2 4 6 8 9 7 5 5 5 4 3 3 2 2 1 1 3 6 7 5 3 2 3 3 3 2 1 1 1 2 2 1 0 0 0 0 0 0 0
0 0 0 0 0 0 0 0 0 0 2 5 7 8 7 5 5 6 7 6 5 3 1 1 1 2 5 8 9 7 6 5 5 5 4 3 2 1 2 1 1 0 0 0 0 0 0 0 0
0 0 0 0 0 0 0 0 0 0 2 4 6 5 4 4 5 8 9 9 8 5 2 2 3 5 7 9 9 7 7 6 5 5 5 3 2 1 1 1 0 0 0 0 0 0 0 0 0
0 0 0 0 0 0 0 0 0 1 3 5 5 4 3 3 6 9 11 12 11 9 6 5 5 7 8 9 8 7 6 5 4 4 4 3 2 0 0 1 1 0 0 0 0 0 1 0 0
0 0 0 0 0 0 0 0 0 1 4 4 4 4 3 4 7 12 14 14 14 15 13 10 8 9 9 9 8 6 6 5 3 3 3 3 2 1 1 1 1 0 0 0 0 0 0 0 0
0 0 0 0 0 0 0 0 1 2 4 3 3 3 3 3 6 11 17 19 19 20 19 14 10 11 11 9 7 5 5 5 5 4 4 3 3 3 2 1 1 0 0 0 0 0 1 1 0
0 0 0 0 0 0 0 0 1 2 3 2 1 1 3 3 4 8 16 23 26 27 25 17 12 13 14 12 9 6 6 7 6 6 5 4 3 4 4 2 1 0 0 1 0 1 2 3 2
0 0 0 0 0 0 0 1 2 2 2 1 0 1 4 4 4 7 14 24 32 35 31 23 17 16 15 14 11 9 9 8 7 7 7 5 3 4 4 3 2 1 1 3 2 2 4 5 5
0 0 0 0 0 0 0 1 2 2 1 0 1 4 7 8 8 10 15 23 33 39 37 29 24 21 17 14 12 11 9 8 7 8 10 8 5 5 4 3 4 3 3 4 5 5 5 5 6
0 0 0 0 0 0 0 1 2 2 1 1 3 7 11 13 14 15 17 22 31 40 41 35 29 25 20 15 13 11 9 7 7 9 12 12 9 7 7 5 6 6 5 4 4 5 5 4 4
0 0 0 0 0 0 0 1 1 1 2 3 6 11 16 20 23 24 24 25 32 41 44 38 32 28 22 16 12 12 11 9 8 11 14 14 11 10 9 8 7 6 5 5 5 6 6 4 3
0 0 0 0 0 0 1 2 1 1 3 5 7 12 19 25 32 34 33 32 37 43 44 38 36 31 23 17 14 13 13 12 13 16 18 17 15 12 11 10 9 7 7 7 8 8 7 6 6
0 0 0 0 0 1 2 2 1 1 3 5 7 12 19 28 35 39 38 37 39 42 42 39 38 34 27 21 17 15 14 13 17 21 21 21 18 14 13 11 10 10 10 10 11 11 9 9 9
0 0 0 1 1 2 2 1 0 1 4 6 8 11 20 28 34 37 39 39 38 38 38 38 38 36 31 26 23 20 16 16 19 22 24 24 20 18 17 15 13 12 12 11 11 11 11 11 11
0 0 1 2 3 3 2 1 1 3 5 8 9 12 19 28 35 39 43 46 43 38 37 38 41 39 33 29 28 27 23 22 23 24 26 25 23 22 23 22 19 16 15 14 13 14 15 15 15
1 1 1 2 3 3 2 2 5 9 11 13 14 14 18 27 37 44 51 56 53 47 44 45 48 47 39 33 31 31 29 28 28 28 28 25 23 25 28 29 27 23 20 19 18 19 19 19 20
2 2 1 2 2 2 2 5 10 14 17 18 19 18 19 25 34 43 52 60 61 57 55 56 60 58 50 41 35 34 34 32 32 31 30 26 24 27 32 35 32 28 25 22 22 22 22 23 24
2 1 1 1 1 1 3 8 13 17 18 19 19 18 19 22 28 38 48 57 61 61 61 66 71 69 60 50 42 38 39 36 34 32 30 27 26 29 36 39 36 31 27 24 23 23 24 27 29
1 1 1 1 1 1 3 8 16 20 18 16 16 17 19 20 25 35 45 51 55 57 60 68 75 73 66 58 51 46 45 42 38 35 33 31 30 31 37 41 39 35 31 28 26 25 27 31 33
0 0 1 2 2 1 3 9 17 20 18 15 15 18 21 21 25 34 41 46 49 52 58 67 74 73 68 64 59 56 56 53 47 44 43 41 39 38 40 42 40 38 37 37 33 30 30 33 34
0 0 1 3 2 1 3 10 16 18 17 16 16 20 22 22 26 34 40 44 46 50 58 68 74 73 70 68 64 63 65 63 56 53 52 49 47 46 44 42 38 37 40 43 40 33 32 35 35

GEFSSGP_con_probscp_228.txt.gz
Probability
15 11 6 5 6 4 1 0 0 0 0 0 0 0 0 0 0 0 0 0 0 0 0 1 3 5 6 7 8 6 4 5 6 8 8 7 6 4 2 1 3 3 3 2 2 1 0 0 0
11 10 7 5 4 2 0 0 0 0 1 1 0 0 0 0 0 0 0 0 0 0 0 1 2 4 6 7 6 4 4 5 6 7 7 5 5 4 3 3 4 4 2 1 1 0 0 1 1
9 9 7 5 3 1 0 0 0 1 3 3 1 0 0 1 1 1 1 0 0 0 0 1 2 3 5 6 5 3 3 4 6 7 6 3 3 4 4 4 4 3 1 0 0 0 1 2 2
10 10 7 4 2 1 1 1 1 1 4 5 2 0 0 1 2 2 1 1 0 0 0 1 2 3 4 5 3 1 2 3 5 6 4 2 1 2 3 3 3 2 1 0 0 0 1 2 3
10 10 7 3 1 1 2 2 1 2 5 6 3 1 0 1 2 3 1 1 1 0 0 1 2 2 3 2 1 1 1 2 3 3 2 1 0 1 1 1 2 2 1 0 0 0 1 2 3
14 12 7 2 0 1 2 3 3 3 5 6 4 1 0 1 2 3 1 1 1 0 0 0 1 1 1 1 1 1 2 2 1 1 1 0 0 0 0 1 2 2 1 0 0 0 1 2 3
16 12 6 2 0 1 2 3 3 4 6 7 5 2 0 1 3 3 3 2 1 1 0 0 0 0 0 0 1 2 3 3 3 2 2 1 0 0 0 1 1 1 0 0 0 0 1 2 3
12 9 4 2 0 0 1 2 3 5 7 7 5 2 1 2 3 3 3 3 3 2 1 0 0 0 0 0 0 1 3 3 3 3 2 1 0 0 0 0 0 0 0 0 0 0 0 1 2
5 5 3 1 0 0 1 3 5 8 10 10 6 4 3 4 4 4 4 3 3 2 1 0 0 0 0 0 0 1 2 3 3 2 2 1 0 0 0 0 0 0 0 0 0 0 0 0 1
1 2 2 1 0 0 1 4 7 11 13 13 10 6 5 5 4 5 5 4 3 2 1 0 0 0 0 0 0 0 1 2 1 1 1 0 0 0 0 0 0 0 0 0 0 0 0 0 0
0 1 1 0 0 0 1 3 7 10 11 14 13 8 5 4 4 5 6 5 4 3 1 0 0 0 0 0 0 0 0 0 0 0 0 0 0 0 0 0 0 0 1 0 0 0 0 0 0
0 0 0 0 0 0 0 2 5 6 9 14 14 8 3 2 4 5 6 6 5 3 1 0 0 0 0 0 0 0 0 0 0 0 0 0 0 0 0 0 0 0 0 0 0 0 0 0 0
0 0 0 0 0 0 0 1 2 4 9 15 15 9 4 2 2 4 6 6 6 4 2 1 1 0 0 0 0 0 0 0 0 0 0 0 0 0 0 0 0 0 0 0 0 0 0 0 0
0 0 0 0 0 0 0 0 1 3 8 13 14 11 7 4 3 5 7 7 6 5 4 4 3 1 1 0 0 0 0 0 0 0 0 0 0 0 0 0 0 0 0 0 0 0 0 0 0
0 0 0 0 0 0 0 0 1 2 5 10 12 10 8 7 6 8 9 7 6 6 6 7 6 4 2 1 0 0 0 0 0 0 0 0 0 1 1 0 0 0 0 0 0 0 0 0 0
0 0 0 0 0 0 0 0 1 2 4 6 7 6 7 9 10 11 10 8 7 6 6 7 7 5 3 2 1 0 0 0 0 0 0 0 1 2 2 1 0 0 0 0 0 0 0 0 0
0 0 0 0 0 0 0 1 2 3 4 5 4 4 6 9 11 13 12 10 8 6 5 6 6 4 3 2 1 0 1 1 1 0 0 1 2 3 3 2 0 0 0 0 0 0 0 0 0
0 0 0 0 1 1 1 1 3 5 5 4 4 4 6 8 10 12 13 12 10 7 5 6 7 5 3 2 1 1 2 2 2 1 1 1 3 3 3 1 0 0 0 0 1 2 1 1 0
0 0 0 0 1 2 2 3 4 5 5 4 4 6 7 7 10 12 13 13 13 11 8 8 10 8 5 3 3 3 3 3 3 3 2 3 3 3 3 2 1 0 0 0 2 3 2 1 1
0 0 0 0 1 2 3 3 4 5 5 3 3 5 7 10 13 14 15 16 18 15 12 12 14 12 7 3 2 2 2 2 2 3 4 4 4 4 4 3 2 0 0 0 1 2 3 2 1
0 0 0 0 0 1 2 2 2 3 3 2 2 4 8 12 14 15 18 20 21 19 16 16 17 15 10 5 3 2 1 1 1 3 4 5 4 4 4 3 2 1 0 0 0 1 2 2 1
0 0 0 0 0 0 0 1 2 2 3 4 4 5 7 10 12 15 18 22 23 22 21 21 21 18 15 11 9 6 2 1 2 3 5 5 4 5 4 4 3 2 2 1 1 1 2 3 3
0 0 0 0 0 0 0 0 2 3 5 7 8 7 7 9 11 14 17 21 24 25 25 26 25 22 20 18 16 11 6 3 3 3 4 4 3 3 5 5 4 4 4 4 4 3 3 3 4
0 0 0 0 0 0 0 0 2 4 6 9 12 13 10 10 13 15 18 22 24 26 28 29 28 25 22 20 18 13 9 7 5 5 4 4 2 2 3 5 4 4 5 6 7 6 5 5 7
0 0 0 0 0 0 0 0 1 3 5 9 14 17 13 12 13 15 18 22 24 25 29 31 29 26 23 20 16 14 12 10 9 8 6 5 3 1 3 5 5 5 6 7 8 8 8 8 10
0 0 0 0 0 0 0 1 1 2 4 8 14 16 13 11 11 13 16 21 23 25 29 33 33 30 25 21 18 15 14 13 12 11 10 8 5 3 4 7 6 5 6 8 10 11 11 11 12
0 0 0 0 0 0 1 2 2 3 4 8 13 15 13 11 10 12 16 20 24 29 34 38 39 36 31 28 25 20 18 17 16 14 14 13 10 7 6 7 7 7 8 9 11 12 12 12 13
0 0 0 0 0 0 1 2 3 4 5 7 12 16 15 13 14 18 22 23 25 33 40 44 44 40 37 38 34 28 24 22 20 18 18 17 14 10 8 7 8 10 11 11 11 11 11 12 13
0 0 0 0 0 0 0 1 3 4 5 7 11 16 17 17 19 22 24 25 27 35 42 47 48 43 40 42 40 35 30 27 25 23 20 19 16 13 10 10 11 12 13 12 12 11 10 10 11
0 0 0 0 0 0 0 1 2 4 6 8 11 15 18 19 20 21 22 25 29 35 41 47 52 47 41 40 41 38 34 31 28 24 20 19 16 13 12 12 13 13 13 14 15 12 9 8 9

GEFSSGP_con_probscp_234.txt.gz
Probability
8 4 1 1 0 0 0 0 0 0 0 0 0 0 0 0 0 0 0 0 0 0 0 0 0 1 2 3 4 6 7 8 10 10 10 8 5 4 3 1 1 2 3 2 3 3 3 2 1
7 3 1 1 1 0 0 0 0 0 0 0 0 0 0 0 0 0 0 0 0 0 0 0 0 1 3 4 5 7 8 9 10 10 10 8 6 4 3 2 2 3 3 3 3 3 2 1 0
5 2 1 2 1 0 0 0 0 1 1 1 0 0 0 0 0 0 0 0 0 0 0 0 0 1 3 4 5 7 9 10 9 9 9 8 7 5 4 3 3 4 4 3 3 1 1 0 0
3 1 1 1 0 0 0 0 1 3 3 1 0 0 0 0 0 0 0 1 1 1 0 0 1 3 4 4 4 6 8 8 8 8 8 8 7 5 4 4 4 5 6 4 2 1 1 1 1
1 0 0 0 0 0 0 0 1 4 4 2 0 0 0 0 0 0 0 2 2 1 0 0 2 5 5 4 4 5 5 5 5 5 6 6 5 4 4 4 4 5 6 5 3 3 3 2 2
0 0 0 0 0 0 0 0 1 4 5 2 1 0 0 0 0 0 0 1 2 2 1 0 2 5 5 4 4 4 3 3 3 2 3 3 4 3 3 3 3 3 4 4 5 5 4 2 3
0 0 0 0 0 0 0 1 2 5 5 2 1 0 0 0 0 0 0 1 2 2 1 0 1 3 3 3 4 3 1 1 1 1 1 1 2 3 3 3 2 2 2 3 4 5 4 3 2
0 0 0 0 0 0 0 2 4 5 4 2 1 0 0 0 0 0 1 1 2 1 0 0 0 1 1 2 2 1 0 1 1 1 1 1 1 2 2 1 1 2 3 4 4 4 3 2 1
0 0 0 0 0 0 0 1 3 4 3 2 1 1 1 1 0 0 1 2 2 1 0 0 0 0 0 1 1 0 1 2 2 1 1 0 0 1 1 1 2 2 4 4 4 3 3 1 0
0 0 0 0 0 1 1 1 2 3 3 2 1 2 3 3 1 0 1 2 2 1 0 0 0 0 0 0 0 0 1 2 3 2 1 0 0 0 1 2 2 3 3 3 2 2 2 1 0
0 0 0 0 1 2 2 1 1 1 2 1 1 3 3 2 1 0 0 1 1 1 0 0 0 0 0 0 0 0 1 2 3 2 1 0 0 0 1 1 2 2 1 1 1 1 1 0 0
0 0 0 0 1 2 2 1 0 0 0 0 0 1 1 1 0 0 0 0 0 1 0 0 0 0 0 0 0 0 1 2 2 1 0 0 0 0 0 0 0 0 0 0 0 0 0 0 0
0 0 0 0 0 1 1 1 1 0 0 0 0 0 0 0 0 0 0 0 1 1 0 0 0 0 0 0 0 0 1 2 1 0 0 0 0 0 0 0 0 0 0 0 0 0 0 0 0
0 0 0 0 0 0 1 1 1 0 0 0 0 0 0 0 0 0 0 0 1 0 0 0 0 0 0 0 0 0 1 1 0 0 0 0 0 0 0 0 0 0 0 0 0 0 0 0 0
0 0 0 0 0 0 0 0 0 0 0 0 0 0 0 0 0 0 0 0 0 0 0 0 0 0 0 0 0 0 0 0 0 0 0 0 0 0 0 0 0 0 0 0 0 0 0 0 0
0 0 0 0 0 0 0 0 1 1 1 1 0 0 1 1 1 1 1 1 1 1 1 0 0 0 0 0 0 0 0 0 0 0 0 0 0 0 0 0 0 0 0 0 0 0 0 0 0
0 0 0 0 0 0 0 0 1 2 2 2 1 1 2 2 2 2 2 3 3 3 3 1 0 0 0 0 0 0 0 0 0 0 0 0 0 0 0 0 0 0 0 0 0 0 0 0 0
0 0 0 0 0 0 0 0 0 1 2 3 3 3 3 3 3 3 3 4 5 5 4 3 1 1 1 0 0 0 0 0 0 0 0 0 0 0 0 0 0 0 0 0 0 0 0 0 0
0 0 0 0 0 0 0 0 0 0 1 2 3 3 3 3 3 3 2 3 5 6 4 3 3 2 2 1 0 0 0 0 0 0 0 0 0 0 0 0 0 0 0 0 0 0 0 0 0
0 0 0 0 0 0 1 0 0 0 0 1 2 3 3 4 3 3 2 3 4 5 4 3 3 3 3 1 0 0 0 0 0 0 0 0 0 0 0 0 0 0 0 0 0 0 0 0 0
0 0 0 0 0 0 0 0 0 0 0 0 1 1 2 3 3 4 4 4 5 5 4 3 3 3 3 2 1 0 0 0 0 0 0 0 0 0 0 0 0 0 0 0 0 0 0 1 1
0 0 0 0 0 0 0 0 0 1 1 1 1 1 2 2 3 4 6 6 7 7 5 4 3 3 4 4 3 1 1 0 0 0 0 0 0 0 0 0 0 0 0 0 0 0 0 1 1
0 0 0 0 0 0 0 0 1 2 2 2 2 2 3 4 4 5 6 8 9 9 9 6 5 5 7 8 7 4 3 1 0 0 0 0 0 0 0 0 0 0 0 0 0 1 1 1 2
0 0 0 0 0 0 0 0 2 3 3 3 3 3 4 6 6 5 6 8 9 10 12 12 9 8 10 11 10 7 5 3 2 1 1 0 0 0 0 0 0 0 0 0 1 2 2 3 3
0 0 0 0 0 0 0 0 1 2 2 2 1 2 4 7 7 5 5 6 7 9 12 15 13 10 10 11 11 9 7 5 4 3 2 1 1 1 0 0 0 0 0 1 1 3 4 4 4
0 0 0 0 0 0 0 0 0 1 1 1 1 2 4 6 6 5 5 6 7 8 11 14 14 11 10 10 10 10 9 8 6 4 3 4 4 3 2 1 1 0 1 1 2 3 4 5 5
0 0 0 0 0 0 0 0 0 1 2 3 3 3 4 4 5 5 4 6 7 8 10 14 14 12 9 8 9 9 10 9 8 6 5 5 6 6 5 3 2 2 1 1 1 2 3 5 6
0 0 0 0 0 0 0 0 0 1 3 4 3 3 3 3 4 4 6 7 8 9 11 14 15 12 9 8 8 10 11 10 9 8 7 6 6 8 9 7 6 5 2 1 1 3 4 4 5
0 0 0 0 0 0 0 0 0 1 2 2 2 2 3 2 3 5 8 9 9 11 13 16 16 13 9 8 10 12 13 12 11 11 10 9 8 9 11 11 10 8 6 4 4 5 5 5 5
0 0 0 0 0 0 0 0 1 1 1 1 1 3 3 2 3 7 10 10 10 12 15 17 17 14 11 11 13 15 15 14 13 12 11 11 11 11 13 13 13 11 9 7 7 6 6 6 7